Time,TemperatureF,DewpointF,PressureIn,WindDirection,WindDirectionDegrees,WindSpeedMPH,WindSpeedGustMPH,Humidity,HourlyPrecipIn,Conditions,Clouds,dailyrainin,SoftwareType,DateUTC
2013-11-01 00:00:00,61.3,59.5,29.85,SSW,192,10.0,12.0,94,0.00,,,0.00,meteohub,2013-11-01 04:00:00,
2013-11-01 00:01:00,61.3,59.5,29.84,SW,234,9.0,12.0,94,0.00,,,0.00,meteohub,2013-11-01 04:01:00,
2013-11-01 00:02:00,61.3,59.5,29.84,SSW,199,8.0,12.0,94,0.00,,,0.00,meteohub,2013-11-01 04:02:00,
2013-11-01 00:03:00,61.3,59.5,29.84,WSW,248,7.0,12.0,94,0.00,,,0.00,meteohub,2013-11-01 04:03:00,
2013-11-01 00:06:00,61.3,59.5,29.84,SSW,197,6.0,14.0,94,0.00,,,0.00,meteohub,2013-11-01 04:06:00,
2013-11-01 00:07:00,61.3,59.9,29.84,SSW,209,7.0,14.0,95,0.00,,,0.00,meteohub,2013-11-01 04:07:00,
2013-11-01 00:08:00,61.3,59.9,29.84,SSW,205,6.0,14.0,95,0.00,,,0.00,meteohub,2013-11-01 04:08:00,
2013-11-01 00:11:00,61.3,59.9,29.84,SSW,196,8.0,14.0,95,0.00,,,0.00,meteohub,2013-11-01 04:11:00,
2013-11-01 00:12:00,61.3,59.9,29.83,WSW,240,6.0,14.0,95,0.00,,,0.00,meteohub,2013-11-01 04:12:00,
2013-11-01 00:13:00,61.3,59.9,29.83,SSW,197,8.0,14.0,95,0.00,,,0.00,meteohub,2013-11-01 04:13:00,
2013-11-01 00:16:00,61.3,59.9,29.82,South,182,6.0,16.0,95,0.00,,,0.00,meteohub,2013-11-01 04:16:00,
2013-11-01 00:17:00,61.3,59.9,29.82,SSW,198,5.0,16.0,95,0.00,,,0.00,meteohub,2013-11-01 04:17:00,
2013-11-01 00:19:00,61.3,59.9,29.83,SSW,196,6.0,16.0,95,0.00,,,0.00,meteohub,2013-11-01 04:19:00,
2013-11-01 00:21:00,61.5,60.1,29.83,SSW,195,5.0,16.0,95,0.00,,,0.00,meteohub,2013-11-01 04:21:00,
2013-11-01 00:22:00,61.5,60.1,29.83,SW,230,9.0,16.0,95,0.00,,,0.00,meteohub,2013-11-01 04:22:00,
2013-11-01 00:23:00,61.5,60.1,29.83,West,262,11.0,16.0,95,0.00,,,0.00,meteohub,2013-11-01 04:23:00,
2013-11-01 00:26:00,61.5,60.1,29.83,SSW,204,14.0,16.0,95,0.00,,,0.00,meteohub,2013-11-01 04:26:00,
2013-11-01 00:27:00,61.5,60.1,29.82,SSW,212,13.0,16.0,95,0.00,,,0.00,meteohub,2013-11-01 04:27:00,
2013-11-01 00:28:00,61.5,60.1,29.83,SW,230,8.0,16.0,95,0.00,,,0.00,meteohub,2013-11-01 04:28:00,
2013-11-01 00:29:00,61.5,60.1,29.82,SW,232,5.0,16.0,95,0.00,,,0.00,meteohub,2013-11-01 04:29:00,
2013-11-01 00:31:00,61.5,60.1,29.82,SSW,211,9.0,16.0,95,0.00,,,0.00,meteohub,2013-11-01 04:31:00,
2013-11-01 00:33:00,61.7,60.3,29.82,WSW,242,11.0,16.0,95,0.00,,,0.00,meteohub,2013-11-01 04:33:00,
2013-11-01 00:34:00,61.7,60.3,29.82,SSW,209,8.0,16.0,95,0.00,,,0.00,meteohub,2013-11-01 04:34:00,
2013-11-01 00:36:00,61.7,60.3,29.82,SSW,210,8.0,15.0,95,0.00,,,0.00,meteohub,2013-11-01 04:36:00,
2013-11-01 00:37:00,61.7,60.3,29.82,SW,219,12.0,15.0,95,0.00,,,0.00,meteohub,2013-11-01 04:37:00,
2013-11-01 00:38:00,61.7,60.3,29.82,SSW,197,9.0,15.0,95,0.00,,,0.00,meteohub,2013-11-01 04:38:00,
2013-11-01 00:39:00,61.7,60.3,29.82,South,190,11.0,15.0,95,0.00,,,0.00,meteohub,2013-11-01 04:39:00,
2013-11-01 00:41:00,61.9,60.4,29.82,South,188,4.0,14.0,95,0.00,,,0.00,meteohub,2013-11-01 04:41:00,
2013-11-01 00:42:00,61.9,60.4,29.82,WSW,250,7.0,14.0,95,0.00,,,0.00,meteohub,2013-11-01 04:42:00,
2013-11-01 00:43:00,61.9,60.4,29.82,SSW,205,7.0,14.0,95,0.00,,,0.00,meteohub,2013-11-01 04:43:00,
2013-11-01 00:44:00,61.9,60.4,29.82,WSW,247,9.0,14.0,95,0.00,,,0.00,meteohub,2013-11-01 04:44:00,
2013-11-01 00:45:00,61.9,60.4,29.82,SSW,200,9.0,16.0,95,0.00,,,0.00,meteohub,2013-11-01 04:45:00,
2013-11-01 00:47:00,61.9,60.4,29.82,SW,235,11.0,16.0,95,0.00,,,0.00,meteohub,2013-11-01 04:47:00,
2013-11-01 00:48:00,61.9,60.4,29.81,SSW,211,9.0,16.0,95,0.00,,,0.00,meteohub,2013-11-01 04:48:00,
2013-11-01 00:49:00,61.9,60.4,29.81,SW,215,7.0,16.0,95,0.00,,,0.00,meteohub,2013-11-01 04:49:00,
2013-11-01 00:50:00,61.9,60.4,29.81,SW,232,5.0,16.0,95,0.00,,,0.00,meteohub,2013-11-01 04:50:00,
2013-11-01 00:52:00,61.9,60.4,29.81,SSW,202,10.0,16.0,95,0.00,,,0.00,meteohub,2013-11-01 04:52:00,
2013-11-01 00:54:00,61.9,60.4,29.81,SSW,208,8.0,16.0,95,0.00,,,0.00,meteohub,2013-11-01 04:54:00,
2013-11-01 00:55:00,61.9,60.4,29.81,SSW,211,5.0,16.0,95,0.00,,,0.00,meteohub,2013-11-01 04:55:00,
2013-11-01 00:57:00,61.9,60.4,29.81,SSW,209,6.0,16.0,95,0.00,,,0.00,meteohub,2013-11-01 04:57:00,
2013-11-01 00:58:00,61.9,60.4,29.81,WSW,240,8.0,16.0,95,0.00,,,0.00,meteohub,2013-11-01 04:58:00,
2013-11-01 00:59:00,61.9,60.4,29.81,SSE,167,14.0,16.0,95,0.00,,,0.00,meteohub,2013-11-01 04:59:00,
2013-11-01 01:00:00,61.9,60.4,29.81,SSW,210,6.0,16.0,95,0.00,,,0.00,meteohub,2013-11-01 05:00:00,
2013-11-01 01:01:00,61.9,60.4,29.81,SSW,210,13.0,16.0,95,0.00,,,0.00,meteohub,2013-11-01 05:01:00,
2013-11-01 01:03:00,61.7,60.3,29.81,South,184,5.0,16.0,95,0.00,,,0.00,meteohub,2013-11-01 05:03:00,
2013-11-01 01:04:00,61.9,60.4,29.81,SW,232,7.0,16.0,95,0.00,,,0.00,meteohub,2013-11-01 05:04:00,
2013-11-01 01:05:00,61.7,60.3,29.81,SSW,196,9.0,15.0,95,0.00,,,0.00,meteohub,2013-11-01 05:05:00,
2013-11-01 01:06:00,61.7,60.3,29.81,SSW,207,9.0,15.0,95,0.00,,,0.00,meteohub,2013-11-01 05:06:00,
2013-11-01 01:09:00,61.7,60.3,29.81,SW,225,6.0,15.0,95,0.00,,,0.00,meteohub,2013-11-01 05:09:00,
2013-11-01 01:11:00,61.7,60.3,29.81,SSW,200,5.0,16.0,95,0.00,,,0.00,meteohub,2013-11-01 05:11:00,
2013-11-01 01:15:00,61.9,60.4,29.81,SW,236,9.0,16.0,95,0.00,,,0.00,meteohub,2013-11-01 05:15:00,
2013-11-01 01:16:00,61.9,60.4,29.81,South,176,10.0,16.0,95,0.00,,,0.00,meteohub,2013-11-01 05:16:00,
2013-11-01 01:17:00,61.9,60.4,29.81,SSW,213,7.0,16.0,95,0.00,,,0.00,meteohub,2013-11-01 05:17:00,
2013-11-01 01:21:00,61.9,60.4,29.81,SSW,204,5.0,14.0,95,0.00,,,0.00,meteohub,2013-11-01 05:21:00,
2013-11-01 01:22:00,61.9,60.4,29.81,SSW,197,4.0,14.0,95,0.00,,,0.00,meteohub,2013-11-01 05:22:00,
2013-11-01 01:23:00,61.9,60.4,29.81,SW,229,8.0,14.0,95,0.00,,,0.00,meteohub,2013-11-01 05:23:00,
2013-11-01 01:26:00,62.1,60.6,29.81,South,184,9.0,18.0,95,0.00,,,0.00,meteohub,2013-11-01 05:26:00,
2013-11-01 01:27:00,62.1,60.6,29.81,SW,233,10.0,18.0,95,0.00,,,0.00,meteohub,2013-11-01 05:27:00,
2013-11-01 01:28:00,62.1,60.6,29.81,WSW,238,14.0,18.0,95,0.00,,,0.00,meteohub,2013-11-01 05:28:00,
2013-11-01 01:29:00,62.1,60.6,29.80,South,186,5.0,18.0,95,0.00,,,0.00,meteohub,2013-11-01 05:29:00,
2013-11-01 01:31:00,62.1,60.6,29.80,WSW,238,12.0,18.0,95,0.00,,,0.00,meteohub,2013-11-01 05:31:00,
2013-11-01 01:32:00,62.1,60.6,29.80,SSW,195,8.0,18.0,95,0.00,,,0.00,meteohub,2013-11-01 05:32:00,
2013-11-01 01:33:00,62.1,60.6,29.80,SSW,211,8.0,18.0,95,0.00,,,0.00,meteohub,2013-11-01 05:33:00,
2013-11-01 01:34:00,61.9,60.1,29.79,WSW,246,10.0,18.0,94,0.00,,,0.00,meteohub,2013-11-01 05:34:00,
2013-11-01 01:35:00,61.9,60.1,29.79,SW,219,8.0,18.0,94,0.00,,,0.00,meteohub,2013-11-01 05:35:00,
2013-11-01 01:36:00,61.9,60.1,29.80,WSW,239,9.0,16.0,94,0.00,,,0.00,meteohub,2013-11-01 05:36:00,
2013-11-01 01:37:00,61.7,59.9,29.79,SW,227,7.0,16.0,94,0.00,,,0.00,meteohub,2013-11-01 05:37:00,
2013-11-01 01:38:00,61.7,59.9,29.79,SW,229,6.0,16.0,94,0.00,,,0.00,meteohub,2013-11-01 05:38:00,
2013-11-01 01:40:00,61.7,60.3,29.79,WSW,243,14.0,16.0,95,0.00,,,0.00,meteohub,2013-11-01 05:40:00,
2013-11-01 01:41:00,61.7,60.3,29.79,SW,217,5.0,16.0,95,0.00,,,0.00,meteohub,2013-11-01 05:41:00,
2013-11-01 01:42:00,61.7,60.3,29.79,WSW,248,7.0,16.0,95,0.00,,,0.00,meteohub,2013-11-01 05:42:00,
2013-11-01 01:43:00,61.9,60.4,29.79,SSW,203,9.0,16.0,95,0.00,,,0.00,meteohub,2013-11-01 05:43:00,
2013-11-01 01:45:00,61.9,60.4,29.79,SW,223,6.0,16.0,95,0.00,,,0.00,meteohub,2013-11-01 05:45:00,
2013-11-01 01:47:00,61.9,60.4,29.79,SSW,207,7.0,16.0,95,0.00,,,0.00,meteohub,2013-11-01 05:47:00,
2013-11-01 01:48:00,61.9,60.4,29.79,SW,231,10.0,16.0,95,0.00,,,0.00,meteohub,2013-11-01 05:48:00,
2013-11-01 01:51:00,61.9,60.4,29.79,South,186,7.0,14.0,95,0.00,,,0.00,meteohub,2013-11-01 05:51:00,
2013-11-01 01:52:00,61.9,60.4,29.79,SW,221,6.0,14.0,95,0.00,,,0.00,meteohub,2013-11-01 05:52:00,
2013-11-01 01:53:00,61.9,60.4,29.79,WSW,240,8.0,14.0,95,0.00,,,0.00,meteohub,2013-11-01 05:53:00,
2013-11-01 01:55:00,62.1,60.6,29.79,South,188,6.0,16.0,95,0.00,,,0.00,meteohub,2013-11-01 05:55:00,
2013-11-01 01:56:00,62.1,60.6,29.79,SSW,207,11.0,16.0,95,0.00,,,0.00,meteohub,2013-11-01 05:56:00,
2013-11-01 01:57:00,62.1,60.6,29.79,South,184,3.0,16.0,95,0.00,,,0.00,meteohub,2013-11-01 05:57:00,
2013-11-01 01:58:00,62.2,60.8,29.78,SSW,209,6.0,16.0,95,0.00,,,0.00,meteohub,2013-11-01 05:58:00,
2013-11-01 02:00:00,62.2,60.8,29.78,South,180,10.0,16.0,95,0.00,,,0.00,meteohub,2013-11-01 06:00:00,
2013-11-01 02:02:00,62.1,60.6,29.78,SSW,211,6.0,16.0,95,0.00,,,0.00,meteohub,2013-11-01 06:02:00,
2013-11-01 02:03:00,62.1,60.3,29.78,WSW,249,10.0,16.0,94,0.00,,,0.00,meteohub,2013-11-01 06:03:00,
2013-11-01 02:04:00,62.1,60.3,29.78,SSW,192,5.0,16.0,94,0.00,,,0.00,meteohub,2013-11-01 06:04:00,
2013-11-01 02:05:00,61.9,60.1,29.78,South,184,8.0,14.0,94,0.00,,,0.00,meteohub,2013-11-01 06:05:00,
2013-11-01 02:07:00,61.9,60.1,29.77,SW,235,5.0,14.0,94,0.00,,,0.00,meteohub,2013-11-01 06:07:00,
2013-11-01 02:08:00,61.9,60.1,29.77,SSW,201,8.0,14.0,94,0.00,,,0.00,meteohub,2013-11-01 06:08:00,
2013-11-01 02:09:00,61.9,60.1,29.77,SW,218,8.0,14.0,94,0.00,,,0.00,meteohub,2013-11-01 06:09:00,
2013-11-01 02:10:00,61.9,60.1,29.77,SW,224,4.0,13.0,94,0.00,,,0.00,meteohub,2013-11-01 06:10:00,
2013-11-01 02:11:00,61.9,60.1,29.77,WSW,244,7.0,13.0,94,0.00,,,0.00,meteohub,2013-11-01 06:11:00,
2013-11-01 02:12:00,61.9,60.1,29.77,SW,223,6.0,13.0,94,0.00,,,0.00,meteohub,2013-11-01 06:12:00,
2013-11-01 02:13:00,61.9,60.1,29.77,SSW,199,6.0,13.0,94,0.00,,,0.00,meteohub,2013-11-01 06:13:00,
2013-11-01 02:15:00,61.9,60.1,29.76,WSW,238,8.0,13.0,94,0.00,,,0.00,meteohub,2013-11-01 06:15:00,
2013-11-01 02:16:00,61.9,60.1,29.77,SSW,211,13.0,13.0,94,0.00,,,0.00,meteohub,2013-11-01 06:16:00,
2013-11-01 02:17:00,61.9,60.1,29.77,SSW,199,8.0,13.0,94,0.00,,,0.00,meteohub,2013-11-01 06:17:00,
2013-11-01 02:18:00,61.9,60.1,29.77,SW,224,6.0,13.0,94,0.00,,,0.00,meteohub,2013-11-01 06:18:00,
2013-11-01 02:19:00,61.9,60.1,29.76,SSW,202,9.0,13.0,94,0.00,,,0.00,meteohub,2013-11-01 06:19:00,
2013-11-01 02:21:00,61.9,60.1,29.76,WSW,238,8.0,13.0,94,0.00,,,0.00,meteohub,2013-11-01 06:21:00,
2013-11-01 02:22:00,61.9,60.1,29.76,South,184,9.0,13.0,94,0.00,,,0.00,meteohub,2013-11-01 06:22:00,
2013-11-01 02:23:00,61.9,60.1,29.76,South,169,9.0,13.0,94,0.00,,,0.00,meteohub,2013-11-01 06:23:00,
2013-11-01 02:24:00,61.9,60.1,29.77,SSW,211,10.0,13.0,94,0.00,,,0.00,meteohub,2013-11-01 06:24:00,
2013-11-01 02:25:00,61.9,60.1,29.76,SSW,196,9.0,15.0,94,0.00,,,0.00,meteohub,2013-11-01 06:25:00,
2013-11-01 02:26:00,61.9,60.1,29.76,SSW,194,8.0,15.0,94,0.00,,,0.00,meteohub,2013-11-01 06:26:00,
2013-11-01 02:28:00,61.9,60.1,29.76,WSW,240,5.0,15.0,94,0.00,,,0.00,meteohub,2013-11-01 06:28:00,
2013-11-01 02:29:00,61.9,60.1,29.76,SW,227,6.0,15.0,94,0.00,,,0.00,meteohub,2013-11-01 06:29:00,
2013-11-01 02:30:00,61.9,60.1,29.76,WSW,244,7.0,15.0,94,0.00,,,0.00,meteohub,2013-11-01 06:30:00,
2013-11-01 02:31:00,61.9,60.1,29.76,South,190,8.0,15.0,94,0.00,,,0.00,meteohub,2013-11-01 06:31:00,
2013-11-01 02:33:00,61.9,60.1,29.76,SSW,202,10.0,15.0,94,0.00,,,0.00,meteohub,2013-11-01 06:33:00,
2013-11-01 02:34:00,61.9,60.1,29.76,SW,233,7.0,15.0,94,0.00,,,0.00,meteohub,2013-11-01 06:34:00,
2013-11-01 02:36:00,61.9,60.1,29.76,SSW,210,4.0,16.0,94,0.00,,,0.00,meteohub,2013-11-01 06:36:00,
2013-11-01 02:37:00,61.9,60.1,29.76,SSW,194,9.0,16.0,94,0.00,,,0.00,meteohub,2013-11-01 06:37:00,
2013-11-01 02:38:00,61.9,60.1,29.76,SSW,196,3.0,16.0,94,0.00,,,0.00,meteohub,2013-11-01 06:38:00,
2013-11-01 02:39:00,61.9,60.1,29.76,SSW,211,11.0,16.0,94,0.00,,,0.00,meteohub,2013-11-01 06:39:00,
2013-11-01 02:41:00,62.1,60.3,29.76,SSW,200,8.0,16.0,94,0.00,,,0.00,meteohub,2013-11-01 06:41:00,
2013-11-01 02:42:00,62.1,60.3,29.76,WSW,247,10.0,16.0,94,0.00,,,0.00,meteohub,2013-11-01 06:42:00,
2013-11-01 02:44:00,62.1,60.3,29.76,SSW,204,7.0,16.0,94,0.00,,,0.00,meteohub,2013-11-01 06:44:00,
2013-11-01 02:46:00,62.1,60.3,29.76,SSW,200,9.0,16.0,94,0.00,,,0.00,meteohub,2013-11-01 06:46:00,
2013-11-01 02:47:00,62.1,60.3,29.76,South,183,11.0,16.0,94,0.00,,,0.00,meteohub,2013-11-01 06:47:00,
2013-11-01 02:48:00,62.1,60.3,29.76,SW,217,10.0,16.0,94,0.00,,,0.00,meteohub,2013-11-01 06:48:00,
2013-11-01 02:49:00,62.2,60.4,29.76,SW,221,8.0,16.0,94,0.00,,,0.00,meteohub,2013-11-01 06:49:00,
2013-11-01 02:51:00,62.2,60.4,29.76,SW,215,6.0,15.0,94,0.00,,,0.00,meteohub,2013-11-01 06:51:00,
2013-11-01 02:52:00,62.1,60.3,29.75,SSW,208,5.0,15.0,94,0.00,,,0.00,meteohub,2013-11-01 06:52:00,
2013-11-01 02:53:00,62.1,60.3,29.75,SW,228,10.0,15.0,94,0.00,,,0.00,meteohub,2013-11-01 06:53:00,
2013-11-01 02:54:00,62.1,60.3,29.75,SSW,210,10.0,15.0,94,0.00,,,0.00,meteohub,2013-11-01 06:54:00,
2013-11-01 02:55:00,62.1,60.3,29.75,SSW,193,10.0,15.0,94,0.00,,,0.00,meteohub,2013-11-01 06:55:00,
2013-11-01 02:56:00,62.1,60.3,29.75,South,171,6.0,17.0,94,0.00,,,0.00,meteohub,2013-11-01 06:56:00,
2013-11-01 02:58:00,62.1,60.3,29.75,SW,220,6.0,17.0,94,0.00,,,0.00,meteohub,2013-11-01 06:58:00,
2013-11-01 02:59:00,62.1,60.3,29.75,SSW,207,7.0,17.0,94,0.00,,,0.00,meteohub,2013-11-01 06:59:00,
2013-11-01 03:00:00,62.1,60.3,29.75,SW,217,8.0,17.0,94,0.00,,,0.00,meteohub,2013-11-01 07:00:00,
2013-11-01 03:01:00,62.1,60.3,29.75,SW,221,10.0,17.0,94,0.00,,,0.00,meteohub,2013-11-01 07:01:00,
2013-11-01 03:03:00,62.1,60.3,29.75,SW,226,8.0,17.0,94,0.00,,,0.00,meteohub,2013-11-01 07:03:00,
2013-11-01 03:04:00,62.1,60.3,29.75,SSW,210,7.0,17.0,94,0.00,,,0.00,meteohub,2013-11-01 07:04:00,
2013-11-01 03:05:00,62.1,60.3,29.75,SW,217,4.0,17.0,94,0.00,,,0.00,meteohub,2013-11-01 07:05:00,
2013-11-01 03:07:00,62.1,60.3,29.75,SW,218,6.0,17.0,94,0.00,,,0.00,meteohub,2013-11-01 07:07:00,
2013-11-01 03:09:00,62.1,60.3,29.75,SSW,213,7.0,17.0,94,0.00,,,0.00,meteohub,2013-11-01 07:09:00,
2013-11-01 03:10:00,62.1,60.3,29.74,SSW,192,11.0,16.0,94,0.00,,,0.00,meteohub,2013-11-01 07:10:00,
2013-11-01 03:11:00,62.1,60.3,29.74,SSW,213,8.0,16.0,94,0.00,,,0.00,meteohub,2013-11-01 07:11:00,
2013-11-01 03:12:00,62.1,60.3,29.74,SW,214,8.0,16.0,94,0.00,,,0.00,meteohub,2013-11-01 07:12:00,
2013-11-01 03:14:00,62.2,60.4,29.74,SW,223,7.0,16.0,94,0.00,,,0.00,meteohub,2013-11-01 07:14:00,
2013-11-01 03:15:00,62.2,60.4,29.74,SW,218,4.0,16.0,94,0.00,,,0.00,meteohub,2013-11-01 07:15:00,
2013-11-01 03:16:00,62.2,60.4,29.74,SSW,202,13.0,16.0,94,0.00,,,0.00,meteohub,2013-11-01 07:16:00,
2013-11-01 03:17:00,62.2,60.4,29.74,SW,217,10.0,16.0,94,0.00,,,0.00,meteohub,2013-11-01 07:17:00,
2013-11-01 03:18:00,62.2,60.4,29.74,SW,214,8.0,16.0,94,0.00,,,0.00,meteohub,2013-11-01 07:18:00,
2013-11-01 03:19:00,62.2,60.4,29.74,SSW,196,5.0,16.0,94,0.00,,,0.00,meteohub,2013-11-01 07:19:00,
2013-11-01 03:21:00,62.4,60.6,29.74,WSW,245,8.0,18.0,94,0.00,,,0.00,meteohub,2013-11-01 07:21:00,
2013-11-01 03:22:00,62.4,60.6,29.74,SW,236,6.0,18.0,94,0.00,,,0.00,meteohub,2013-11-01 07:22:00,
2013-11-01 03:23:00,62.6,60.8,29.74,SW,233,8.0,18.0,94,0.00,,,0.00,meteohub,2013-11-01 07:23:00,
2013-11-01 03:26:00,62.8,61.0,29.74,SW,219,8.0,18.0,94,0.00,,,0.00,meteohub,2013-11-01 07:26:00,
2013-11-01 03:27:00,63.0,61.2,29.74,WSW,237,3.0,18.0,94,0.00,,,0.00,meteohub,2013-11-01 07:27:00,
2013-11-01 03:28:00,63.0,61.2,29.74,SSW,200,6.0,18.0,94,0.00,,,0.00,meteohub,2013-11-01 07:28:00,
2013-11-01 03:29:00,63.1,61.3,29.74,SSW,206,10.0,18.0,94,0.00,,,0.00,meteohub,2013-11-01 07:29:00,
2013-11-01 03:31:00,63.3,61.5,29.74,SW,225,9.0,18.0,94,0.00,,,0.00,meteohub,2013-11-01 07:31:00,
2013-11-01 03:32:00,63.5,61.5,29.74,SSW,212,10.0,18.0,93,0.00,,,0.00,meteohub,2013-11-01 07:32:00,
2013-11-01 03:33:00,63.7,61.7,29.74,SSW,211,19.0,19.0,93,0.00,,,0.00,meteohub,2013-11-01 07:33:00,
2013-11-01 03:34:00,63.7,61.7,29.74,SW,233,13.0,18.0,93,0.00,,,0.00,meteohub,2013-11-01 07:34:00,
2013-11-01 03:36:00,64.0,62.1,29.74,SW,228,10.0,19.0,93,0.00,,,0.00,meteohub,2013-11-01 07:36:00,
2013-11-01 03:38:00,64.0,62.1,29.74,SSW,210,12.0,19.0,93,0.00,,,0.00,meteohub,2013-11-01 07:38:00,
2013-11-01 03:39:00,64.2,61.9,29.74,SSW,207,9.0,19.0,92,0.00,,,0.00,meteohub,2013-11-01 07:39:00,
2013-11-01 03:40:00,64.4,62.1,29.74,SSW,204,12.0,32.0,92,0.00,,,0.00,meteohub,2013-11-01 07:40:00,
2013-11-01 03:43:00,64.8,62.4,29.73,SW,217,14.0,32.0,92,0.00,,,0.00,meteohub,2013-11-01 07:43:00,
2013-11-01 03:44:00,64.8,62.1,29.72,SSW,193,7.0,32.0,91,0.00,,,0.00,meteohub,2013-11-01 07:44:00,
2013-11-01 03:46:00,64.8,62.1,29.72,SSW,209,9.0,32.0,91,0.00,,,0.00,meteohub,2013-11-01 07:46:00,
2013-11-01 03:48:00,64.8,62.1,29.72,SSW,210,8.0,32.0,91,0.00,,,0.00,meteohub,2013-11-01 07:48:00,
2013-11-01 03:49:00,64.8,62.1,29.73,SSW,208,9.0,32.0,91,0.00,,,0.00,meteohub,2013-11-01 07:49:00,
2013-11-01 03:50:00,64.8,62.1,29.73,SSW,194,8.0,32.0,91,0.00,,,0.00,meteohub,2013-11-01 07:50:00,
2013-11-01 03:51:00,64.6,61.9,29.73,SW,215,15.0,32.0,91,0.00,,,0.00,meteohub,2013-11-01 07:51:00,
2013-11-01 03:53:00,64.8,62.1,29.73,SSW,212,13.0,32.0,91,0.00,,,0.00,meteohub,2013-11-01 07:53:00,
2013-11-01 03:54:00,64.8,62.1,29.73,SSW,207,16.0,32.0,91,0.00,,,0.00,meteohub,2013-11-01 07:54:00,
2013-11-01 03:55:00,64.8,62.1,29.73,WSW,250,13.0,23.0,91,0.00,,,0.00,meteohub,2013-11-01 07:55:00,
2013-11-01 03:57:00,64.8,62.1,29.73,SSW,192,15.0,23.0,91,0.00,,,0.00,meteohub,2013-11-01 07:57:00,
2013-11-01 03:58:00,64.8,62.1,29.73,SW,223,11.0,23.0,91,0.00,,,0.00,meteohub,2013-11-01 07:58:00,
2013-11-01 03:59:00,64.8,62.1,29.73,SW,218,8.0,23.0,91,0.00,,,0.00,meteohub,2013-11-01 07:59:00,
2013-11-01 04:00:00,64.8,62.1,29.73,SW,226,17.0,23.0,91,0.00,,,0.00,meteohub,2013-11-01 08:00:00,
2013-11-01 04:03:00,64.9,62.6,29.72,South,184,13.0,23.0,92,0.00,,,0.00,meteohub,2013-11-01 08:03:00,
2013-11-01 04:04:00,64.9,62.6,29.72,SSW,202,10.0,23.0,92,0.00,,,0.00,meteohub,2013-11-01 08:04:00,
2013-11-01 04:06:00,64.9,62.6,29.72,SW,226,14.0,23.0,92,0.00,,,0.00,meteohub,2013-11-01 08:06:00,
2013-11-01 04:09:00,64.9,62.6,29.72,SW,214,8.0,23.0,92,0.00,,,0.00,meteohub,2013-11-01 08:09:00,
2013-11-01 04:10:00,64.9,62.6,29.72,SSW,192,11.0,23.0,92,0.00,,,0.00,meteohub,2013-11-01 08:10:00,
2013-11-01 04:11:00,64.9,62.6,29.72,WSW,240,11.0,23.0,92,0.00,,,0.00,meteohub,2013-11-01 08:11:00,
2013-11-01 04:12:00,64.9,62.6,29.72,SSW,213,15.0,23.0,92,0.00,,,0.00,meteohub,2013-11-01 08:12:00,
2013-11-01 04:14:00,65.1,62.8,29.72,SSW,194,10.0,23.0,92,0.00,,,0.00,meteohub,2013-11-01 08:14:00,
2013-11-01 04:15:00,64.9,62.6,29.71,SW,215,9.0,27.0,92,0.00,,,0.00,meteohub,2013-11-01 08:15:00,
2013-11-01 04:16:00,64.9,62.6,29.71,SW,230,11.0,27.0,92,0.00,,,0.00,meteohub,2013-11-01 08:16:00,
2013-11-01 04:17:00,64.9,62.2,29.71,WSW,240,9.0,27.0,91,0.00,,,0.00,meteohub,2013-11-01 08:17:00,
2013-11-01 04:19:00,64.8,62.1,29.72,WSW,238,14.0,27.0,91,0.00,,,0.00,meteohub,2013-11-01 08:19:00,
2013-11-01 04:20:00,64.8,62.1,29.72,SSW,209,11.0,27.0,91,0.00,,,0.00,meteohub,2013-11-01 08:20:00,
2013-11-01 04:21:00,64.8,62.1,29.72,SW,217,16.0,27.0,91,0.00,,,0.00,meteohub,2013-11-01 08:21:00,
2013-11-01 04:22:00,64.8,62.1,29.72,SW,229,9.0,27.0,91,0.00,,,0.00,meteohub,2013-11-01 08:22:00,
2013-11-01 04:23:00,64.8,62.4,29.72,SSW,206,12.0,27.0,92,0.00,,,0.00,meteohub,2013-11-01 08:23:00,
2013-11-01 04:25:00,64.8,62.4,29.72,WSW,257,11.0,27.0,92,0.00,,,0.00,meteohub,2013-11-01 08:25:00,
2013-11-01 04:26:00,64.8,62.4,29.72,SW,229,13.0,27.0,92,0.00,,,0.00,meteohub,2013-11-01 08:26:00,
2013-11-01 04:27:00,64.8,62.4,29.72,SSW,195,11.0,27.0,92,0.00,,,0.00,meteohub,2013-11-01 08:27:00,
2013-11-01 04:28:00,64.9,62.6,29.72,WSW,246,11.0,27.0,92,0.00,,,0.00,meteohub,2013-11-01 08:28:00,
2013-11-01 04:31:00,64.9,62.6,29.72,SW,225,5.0,25.0,92,0.00,,,0.00,meteohub,2013-11-01 08:31:00,
2013-11-01 04:32:00,64.9,62.6,29.72,SW,222,11.0,25.0,92,0.00,,,0.00,meteohub,2013-11-01 08:32:00,
2013-11-01 04:33:00,64.9,62.6,29.72,SW,236,17.0,25.0,92,0.00,,,0.00,meteohub,2013-11-01 08:33:00,
2013-11-01 04:36:00,64.9,62.6,29.71,SSW,192,8.0,25.0,92,0.00,,,0.00,meteohub,2013-11-01 08:36:00,
2013-11-01 04:37:00,64.9,62.6,29.71,SW,215,14.0,25.0,92,0.00,,,0.00,meteohub,2013-11-01 08:37:00,
2013-11-01 04:38:00,64.9,62.2,29.71,SSW,206,13.0,25.0,91,0.00,,,0.00,meteohub,2013-11-01 08:38:00,
2013-11-01 04:42:00,64.2,61.5,29.70,SW,217,13.0,22.0,91,0.00,,,0.00,meteohub,2013-11-01 08:42:00,
2013-11-01 04:43:00,64.0,61.3,29.70,SW,231,10.0,22.0,91,0.00,,,0.00,meteohub,2013-11-01 08:43:00,
2013-11-01 04:47:00,63.5,60.8,29.70,SSW,202,10.0,19.0,91,0.00,,,0.00,meteohub,2013-11-01 08:47:00,
2013-11-01 04:48:00,63.5,60.8,29.70,West,268,9.0,19.0,91,0.00,,,0.00,meteohub,2013-11-01 08:48:00,
2013-11-01 04:49:00,63.3,61.0,29.70,SSW,198,9.0,19.0,92,0.00,,,0.00,meteohub,2013-11-01 08:49:00,
2013-11-01 04:53:00,63.3,61.0,29.70,South,190,8.0,19.0,92,0.00,,,0.00,meteohub,2013-11-01 08:53:00,
2013-11-01 04:54:00,63.3,61.0,29.70,South,186,8.0,19.0,92,0.00,,,0.00,meteohub,2013-11-01 08:54:00,
2013-11-01 04:58:00,63.5,61.5,29.70,WSW,240,6.0,19.0,93,0.00,,,0.00,meteohub,2013-11-01 08:58:00,
2013-11-01 04:59:00,63.7,61.7,29.70,SW,215,12.0,19.0,93,0.00,,,0.00,meteohub,2013-11-01 08:59:00,
2013-11-01 05:00:00,63.7,61.7,29.70,West,265,6.0,19.0,93,0.00,,,0.00,meteohub,2013-11-01 09:00:00,
2013-11-01 05:03:00,63.7,61.3,29.70,WSW,247,10.0,19.0,92,0.00,,,0.00,meteohub,2013-11-01 09:03:00,
2013-11-01 05:04:00,63.7,61.3,29.70,West,259,10.0,19.0,92,0.00,,,0.00,meteohub,2013-11-01 09:04:00,
2013-11-01 05:05:00,63.7,61.3,29.70,West,275,10.0,19.0,92,0.00,,,0.00,meteohub,2013-11-01 09:05:00,
2013-11-01 05:08:00,63.5,61.2,29.70,South,186,13.0,20.0,92,0.00,,,0.00,meteohub,2013-11-01 09:08:00,
2013-11-01 05:09:00,63.5,61.2,29.69,WSW,240,11.0,20.0,92,0.00,,,0.00,meteohub,2013-11-01 09:09:00,
2013-11-01 05:10:00,63.3,61.0,29.70,SSW,198,6.0,20.0,92,0.00,,,0.00,meteohub,2013-11-01 09:10:00,
2013-11-01 05:14:00,63.1,61.2,29.69,SSW,207,6.0,20.0,93,0.00,,,0.00,meteohub,2013-11-01 09:14:00,
2013-11-01 05:15:00,63.1,61.2,29.69,SSW,204,5.0,20.0,93,0.00,,,0.00,meteohub,2013-11-01 09:15:00,
2013-11-01 05:16:00,63.1,61.2,29.69,SSW,205,4.0,18.0,93,0.00,,,0.00,meteohub,2013-11-01 09:16:00,
2013-11-01 05:17:00,63.1,61.2,29.69,SW,221,7.0,18.0,93,0.00,,,0.00,meteohub,2013-11-01 09:17:00,
2013-11-01 05:19:00,63.1,61.2,29.69,West,268,11.0,18.0,93,0.00,,,0.00,meteohub,2013-11-01 09:19:00,
2013-11-01 05:20:00,63.1,61.2,29.69,SSW,192,15.0,18.0,93,0.00,,,0.00,meteohub,2013-11-01 09:20:00,
2013-11-01 05:21:00,63.1,61.2,29.69,South,182,10.0,18.0,93,0.00,,,0.00,meteohub,2013-11-01 09:21:00,
2013-11-01 05:22:00,63.1,61.2,29.69,SSW,199,6.0,18.0,93,0.00,,,0.00,meteohub,2013-11-01 09:22:00,
2013-11-01 05:24:00,63.1,61.2,29.69,South,188,7.0,18.0,93,0.00,,,0.00,meteohub,2013-11-01 09:24:00,
2013-11-01 05:25:00,63.1,61.2,29.69,West,261,10.0,18.0,93,0.00,,,0.00,meteohub,2013-11-01 09:25:00,
2013-11-01 05:26:00,63.0,61.0,29.69,SSW,192,9.0,18.0,93,0.00,,,0.00,meteohub,2013-11-01 09:26:00,
2013-11-01 05:27:00,63.0,61.0,29.69,SW,223,10.0,18.0,93,0.00,,,0.00,meteohub,2013-11-01 09:27:00,
2013-11-01 05:28:00,63.0,61.0,29.69,SW,233,10.0,18.0,93,0.00,,,0.00,meteohub,2013-11-01 09:28:00,
2013-11-01 05:29:00,63.0,61.0,29.69,SW,225,7.0,18.0,93,0.00,,,0.00,meteohub,2013-11-01 09:29:00,
2013-11-01 05:31:00,63.1,61.2,29.70,SSW,206,10.0,19.0,93,0.00,,,0.00,meteohub,2013-11-01 09:31:00,
2013-11-01 05:33:00,63.1,61.2,29.70,WSW,242,11.0,19.0,93,0.00,,,0.00,meteohub,2013-11-01 09:33:00,
2013-11-01 05:35:00,63.1,61.3,29.70,SW,216,15.0,19.0,94,0.00,,,0.00,meteohub,2013-11-01 09:35:00,
2013-11-01 05:36:00,63.3,61.5,29.69,SSW,205,5.0,19.0,94,0.00,,,0.00,meteohub,2013-11-01 09:36:00,
2013-11-01 05:38:00,63.3,61.5,29.69,SW,221,6.0,19.0,94,0.00,,,0.00,meteohub,2013-11-01 09:38:00,
2013-11-01 05:40:00,63.3,61.3,29.69,SSW,196,11.0,19.0,93,0.00,,,0.00,meteohub,2013-11-01 09:40:00,
2013-11-01 05:41:00,63.3,61.3,29.69,SSW,197,9.0,19.0,93,0.00,,,0.00,meteohub,2013-11-01 09:41:00,
2013-11-01 05:42:00,63.3,61.3,29.69,SSW,200,9.0,19.0,93,0.00,,,0.00,meteohub,2013-11-01 09:42:00,
2013-11-01 05:43:00,63.3,61.3,29.69,SW,225,14.0,19.0,93,0.00,,,0.00,meteohub,2013-11-01 09:43:00,
2013-11-01 05:45:00,63.3,61.3,29.69,SSW,194,8.0,19.0,93,0.00,,,0.00,meteohub,2013-11-01 09:45:00,
2013-11-01 05:47:00,63.1,61.2,29.69,SSW,194,8.0,17.0,93,0.00,,,0.00,meteohub,2013-11-01 09:47:00,
2013-11-01 05:48:00,63.1,61.2,29.69,SSW,212,11.0,17.0,93,0.00,,,0.00,meteohub,2013-11-01 09:48:00,
2013-11-01 05:49:00,63.1,61.2,29.69,South,188,9.0,17.0,93,0.00,,,0.00,meteohub,2013-11-01 09:49:00,
2013-11-01 05:50:00,63.1,61.2,29.69,SSW,200,8.0,17.0,93,0.00,,,0.00,meteohub,2013-11-01 09:50:00,
2013-11-01 05:52:00,63.1,61.2,29.68,WSW,246,11.0,18.0,93,0.00,,,0.00,meteohub,2013-11-01 09:52:00,
2013-11-01 05:53:00,63.1,61.2,29.69,SW,229,7.0,18.0,93,0.00,,,0.00,meteohub,2013-11-01 09:53:00,
2013-11-01 05:54:00,63.1,61.2,29.69,WSW,258,11.0,18.0,93,0.00,,,0.00,meteohub,2013-11-01 09:54:00,
2013-11-01 05:55:00,63.1,61.2,29.69,SW,231,10.0,18.0,93,0.00,,,0.00,meteohub,2013-11-01 09:55:00,
2013-11-01 05:57:00,63.0,61.0,29.69,SSW,204,7.0,19.0,93,0.00,,,0.00,meteohub,2013-11-01 09:57:00,
2013-11-01 05:58:00,63.0,61.0,29.69,South,187,10.0,19.0,93,0.00,,,0.00,meteohub,2013-11-01 09:58:00,
2013-11-01 05:59:00,63.0,61.0,29.68,SSW,198,6.0,19.0,93,0.00,,,0.00,meteohub,2013-11-01 09:59:00,
2013-11-01 06:00:00,63.0,61.0,29.68,SW,233,8.0,19.0,93,0.00,,,0.00,meteohub,2013-11-01 10:00:00,
2013-11-01 06:03:00,63.0,61.0,29.68,WSW,242,6.0,19.0,93,0.00,,,0.00,meteohub,2013-11-01 10:03:00,
2013-11-01 06:04:00,63.0,61.0,29.68,SSW,205,8.0,19.0,93,0.00,,,0.00,meteohub,2013-11-01 10:04:00,
2013-11-01 06:05:00,63.0,61.0,29.68,SSW,196,9.0,16.0,93,0.00,,,0.00,meteohub,2013-11-01 10:05:00,
2013-11-01 06:08:00,63.0,61.0,29.68,SSW,197,8.0,16.0,93,0.00,,,0.00,meteohub,2013-11-01 10:08:00,
2013-11-01 06:09:00,63.0,61.0,29.68,South,184,11.0,16.0,93,0.00,,,0.00,meteohub,2013-11-01 10:09:00,
2013-11-01 06:10:00,63.0,61.2,29.68,SW,225,7.0,16.0,94,0.00,,,0.00,meteohub,2013-11-01 10:10:00,
2013-11-01 06:11:00,63.1,61.3,29.68,SSW,205,8.0,16.0,94,0.00,,,0.00,meteohub,2013-11-01 10:11:00,
2013-11-01 06:13:00,63.1,61.3,29.68,South,188,10.0,16.0,94,0.00,,,0.00,meteohub,2013-11-01 10:13:00,
2013-11-01 06:14:00,63.1,61.3,29.68,SW,231,11.0,16.0,94,0.00,,,0.00,meteohub,2013-11-01 10:14:00,
2013-11-01 06:15:00,63.1,61.3,29.68,SSW,193,9.0,16.0,94,0.00,,,0.00,meteohub,2013-11-01 10:15:00,
2013-11-01 06:16:00,63.1,61.3,29.68,WSW,252,7.0,19.0,94,0.00,,,0.00,meteohub,2013-11-01 10:16:00,
2013-11-01 06:19:00,63.3,61.5,29.68,SSW,200,6.0,19.0,94,0.00,,,0.00,meteohub,2013-11-01 10:19:00,
2013-11-01 06:20:00,63.3,61.3,29.68,SSW,197,7.0,19.0,93,0.00,,,0.00,meteohub,2013-11-01 10:20:00,
2013-11-01 06:21:00,63.3,61.3,29.68,SSW,208,11.0,19.0,93,0.00,,,0.00,meteohub,2013-11-01 10:21:00,
2013-11-01 06:22:00,63.1,61.2,29.68,SSW,203,7.0,19.0,93,0.00,,,0.00,meteohub,2013-11-01 10:22:00,
2013-11-01 06:24:00,63.1,61.2,29.68,SSW,206,6.0,19.0,93,0.00,,,0.00,meteohub,2013-11-01 10:24:00,
2013-11-01 06:27:00,63.1,61.2,29.68,SSW,198,9.0,18.0,93,0.00,,,0.00,meteohub,2013-11-01 10:27:00,
2013-11-01 06:28:00,63.1,61.2,29.68,SW,222,6.0,18.0,93,0.00,,,0.00,meteohub,2013-11-01 10:28:00,
2013-11-01 06:29:00,63.1,61.2,29.68,SW,217,6.0,18.0,93,0.00,,,0.00,meteohub,2013-11-01 10:29:00,
2013-11-01 06:30:00,63.1,61.2,29.68,WSW,246,4.0,18.0,93,0.00,,,0.00,meteohub,2013-11-01 10:30:00,
2013-11-01 06:32:00,63.1,61.2,29.68,SW,215,11.0,18.0,93,0.00,,,0.00,meteohub,2013-11-01 10:32:00,
2013-11-01 06:33:00,63.3,61.3,29.68,SW,225,10.0,18.0,93,0.00,,,0.00,meteohub,2013-11-01 10:33:00,
2013-11-01 06:35:00,63.1,61.2,29.68,SSW,196,7.0,18.0,93,0.00,,,0.00,meteohub,2013-11-01 10:35:00,
2013-11-01 06:37:00,63.1,61.2,29.68,SW,229,13.0,18.0,93,0.00,,,0.00,meteohub,2013-11-01 10:37:00,
2013-11-01 06:38:00,63.1,61.2,29.68,SW,226,10.0,18.0,93,0.00,,,0.00,meteohub,2013-11-01 10:38:00,
2013-11-01 06:40:00,63.1,61.2,29.67,WSW,245,12.0,21.0,93,0.00,,,0.00,meteohub,2013-11-01 10:40:00,
2013-11-01 06:41:00,63.3,61.3,29.67,WSW,249,7.0,21.0,93,0.00,,,0.00,meteohub,2013-11-01 10:41:00,
2013-11-01 06:43:00,63.1,61.2,29.67,West,264,7.0,21.0,93,0.00,,,0.00,meteohub,2013-11-01 10:43:00,
2013-11-01 06:45:00,63.1,61.2,29.67,SW,220,9.0,21.0,93,0.00,,,0.00,meteohub,2013-11-01 10:45:00,
2013-11-01 06:47:00,63.1,61.2,29.66,SSW,196,12.0,21.0,93,0.00,,,0.00,meteohub,2013-11-01 10:47:00,
2013-11-01 06:48:00,63.1,61.2,29.67,SSW,203,9.0,21.0,93,0.00,,,0.00,meteohub,2013-11-01 10:48:00,
2013-11-01 06:50:00,63.1,61.2,29.67,South,171,8.0,21.0,93,0.00,,,0.00,meteohub,2013-11-01 10:50:00,
2013-11-01 06:51:00,63.1,61.2,29.67,SSW,213,14.0,21.0,93,0.00,,,0.00,meteohub,2013-11-01 10:51:00,
2013-11-01 06:52:00,63.1,61.2,29.66,SSW,202,7.0,21.0,93,0.00,,,0.00,meteohub,2013-11-01 10:52:00,
2013-11-01 06:53:00,63.1,61.2,29.67,SW,222,11.0,21.0,93,0.00,,,0.00,meteohub,2013-11-01 10:53:00,
2013-11-01 06:55:00,63.1,61.2,29.67,SW,235,12.0,16.0,93,0.00,,,0.00,meteohub,2013-11-01 10:55:00,
2013-11-01 06:57:00,63.3,61.3,29.66,WSW,251,8.0,16.0,93,0.00,,,0.00,meteohub,2013-11-01 10:57:00,
2013-11-01 06:58:00,63.3,61.3,29.67,SW,225,9.0,16.0,93,0.00,,,0.00,meteohub,2013-11-01 10:58:00,
2013-11-01 06:59:00,63.3,61.3,29.67,SSW,212,12.0,16.0,93,0.00,,,0.00,meteohub,2013-11-01 10:59:00,
2013-11-01 07:00:00,63.3,61.3,29.66,SW,227,13.0,17.0,93,0.00,,,0.00,meteohub,2013-11-01 11:00:00,
2013-11-01 07:01:00,63.3,61.3,29.66,SW,220,15.0,17.0,93,0.00,,,0.00,meteohub,2013-11-01 11:01:00,
2013-11-01 07:02:00,63.3,61.3,29.66,WSW,252,5.0,17.0,93,0.00,,,0.00,meteohub,2013-11-01 11:02:00,
2013-11-01 07:03:00,63.3,61.3,29.66,WSW,247,5.0,17.0,93,0.00,,,0.00,meteohub,2013-11-01 11:03:00,
2013-11-01 07:04:00,63.3,61.3,29.66,WSW,244,7.0,17.0,93,0.00,,,0.00,meteohub,2013-11-01 11:04:00,
2013-11-01 07:06:00,63.3,61.3,29.67,SW,220,8.0,20.0,93,0.00,,,0.00,meteohub,2013-11-01 11:06:00,
2013-11-01 07:07:00,63.3,61.3,29.66,SW,225,7.0,20.0,93,0.00,,,0.00,meteohub,2013-11-01 11:07:00,
2013-11-01 07:09:00,63.3,61.3,29.66,South,171,8.0,20.0,93,0.00,,,0.00,meteohub,2013-11-01 11:09:00,
2013-11-01 07:12:00,63.3,61.3,29.66,SW,226,8.0,20.0,93,0.00,,,0.00,meteohub,2013-11-01 11:12:00,
2013-11-01 07:13:00,63.3,61.3,29.66,SW,229,9.0,20.0,93,0.00,,,0.00,meteohub,2013-11-01 11:13:00,
2013-11-01 07:14:00,63.3,61.3,29.66,WSW,252,8.0,20.0,93,0.00,,,0.00,meteohub,2013-11-01 11:14:00,
2013-11-01 07:15:00,63.3,61.3,29.66,SW,235,11.0,20.0,93,0.00,,,0.00,meteohub,2013-11-01 11:15:00,
2013-11-01 07:18:00,63.3,61.3,29.65,SSW,207,11.0,20.0,93,0.00,,,0.00,meteohub,2013-11-01 11:18:00,
2013-11-01 07:19:00,63.3,61.3,29.65,SSW,213,12.0,20.0,93,0.00,,,0.00,meteohub,2013-11-01 11:19:00,
2013-11-01 07:20:00,63.3,61.3,29.65,SSW,207,6.0,20.0,93,0.00,,,0.00,meteohub,2013-11-01 11:20:00,
2013-11-01 07:23:00,63.7,61.7,29.65,SSW,202,8.0,19.0,93,0.00,,,0.00,meteohub,2013-11-01 11:23:00,
2013-11-01 07:24:00,63.7,61.7,29.65,SSW,209,10.0,19.0,93,0.00,,,0.00,meteohub,2013-11-01 11:24:00,
2013-11-01 07:25:00,63.7,61.7,29.65,West,259,13.0,22.0,93,0.00,,,0.00,meteohub,2013-11-01 11:25:00,
2013-11-01 07:26:00,63.9,61.9,29.65,SW,214,7.0,22.0,93,0.00,,,0.00,meteohub,2013-11-01 11:26:00,
2013-11-01 07:27:00,63.9,61.9,29.65,SW,217,12.0,22.0,93,0.00,,,0.00,meteohub,2013-11-01 11:27:00,
2013-11-01 07:29:00,63.7,61.7,29.65,SW,227,9.0,22.0,93,0.00,,,0.00,meteohub,2013-11-01 11:29:00,
2013-11-01 07:30:00,63.7,61.7,29.65,SSW,206,13.0,22.0,93,0.00,,,0.00,meteohub,2013-11-01 11:30:00,
2013-11-01 07:31:00,63.7,61.7,29.65,WSW,247,9.0,22.0,93,0.00,,,0.00,meteohub,2013-11-01 11:31:00,
2013-11-01 07:33:00,63.7,61.7,29.65,SSW,213,12.0,22.0,93,0.00,,,0.00,meteohub,2013-11-01 11:33:00,
2013-11-01 07:34:00,63.7,61.7,29.65,SSW,207,9.0,22.0,93,0.00,,,0.00,meteohub,2013-11-01 11:34:00,
2013-11-01 07:35:00,63.9,61.9,29.65,SSW,202,22.0,22.0,93,0.00,,,0.00,meteohub,2013-11-01 11:35:00,
2013-11-01 07:36:00,63.9,61.9,29.65,WSW,249,13.0,22.0,93,0.00,,,0.00,meteohub,2013-11-01 11:36:00,
2013-11-01 07:38:00,63.9,61.9,29.65,WSW,246,12.0,22.0,93,0.00,,,0.00,meteohub,2013-11-01 11:38:00,
2013-11-01 07:39:00,63.9,61.9,29.65,WSW,244,8.0,22.0,93,0.00,,,0.00,meteohub,2013-11-01 11:39:00,
2013-11-01 07:40:00,63.9,61.9,29.66,West,261,13.0,22.0,93,0.00,,,0.00,meteohub,2013-11-01 11:40:00,
2013-11-01 07:41:00,63.9,61.9,29.66,SW,221,11.0,22.0,93,0.00,,,0.00,meteohub,2013-11-01 11:41:00,
2013-11-01 07:42:00,64.0,62.1,29.66,SSW,206,10.0,22.0,93,0.00,,,0.00,meteohub,2013-11-01 11:42:00,
2013-11-01 07:44:00,64.0,62.1,29.66,South,186,12.0,22.0,93,0.00,,,0.00,meteohub,2013-11-01 11:44:00,
2013-11-01 07:46:00,64.2,62.2,29.66,SW,232,10.0,22.0,93,0.00,,,0.00,meteohub,2013-11-01 11:46:00,
2013-11-01 07:47:00,64.2,62.2,29.66,WSW,239,12.0,22.0,93,0.00,,,0.00,meteohub,2013-11-01 11:47:00,
2013-11-01 07:49:00,64.6,62.4,29.66,SW,228,13.0,22.0,93,0.00,,,0.00,meteohub,2013-11-01 11:49:00,
2013-11-01 07:50:00,64.6,62.4,29.66,SW,221,9.0,22.0,93,0.00,,,0.00,meteohub,2013-11-01 11:50:00,
2013-11-01 07:52:00,64.6,62.4,29.66,WSW,248,13.0,22.0,93,0.00,,,0.00,meteohub,2013-11-01 11:52:00,
2013-11-01 07:53:00,64.6,62.4,29.66,SSW,200,6.0,22.0,93,0.00,,,0.00,meteohub,2013-11-01 11:53:00,
2013-11-01 07:55:00,64.6,62.2,29.66,South,188,9.0,21.0,92,0.00,,,0.00,meteohub,2013-11-01 11:55:00,
2013-11-01 07:57:00,64.8,62.4,29.66,South,180,12.0,21.0,92,0.00,,,0.00,meteohub,2013-11-01 11:57:00,
2013-11-01 07:58:00,64.8,62.4,29.66,South,184,12.0,21.0,92,0.00,,,0.00,meteohub,2013-11-01 11:58:00,
2013-11-01 07:59:00,64.8,62.4,29.66,SW,223,11.0,21.0,92,0.00,,,0.00,meteohub,2013-11-01 11:59:00,
2013-11-01 08:00:00,64.8,62.4,29.66,WSW,237,16.0,26.0,92,0.00,,,0.00,meteohub,2013-11-01 12:00:00,
2013-11-01 08:01:00,64.8,62.4,29.66,WNW,287,9.0,26.0,92,0.00,,,0.00,meteohub,2013-11-01 12:01:00,
2013-11-01 08:02:00,64.8,62.4,29.66,SSW,200,11.0,26.0,92,0.00,,,0.00,meteohub,2013-11-01 12:02:00,
2013-11-01 08:03:00,64.9,62.6,29.66,West,259,11.0,26.0,92,0.00,,,0.00,meteohub,2013-11-01 12:03:00,
2013-11-01 08:04:00,64.9,62.6,29.66,SSW,192,5.0,26.0,92,0.00,,,0.00,meteohub,2013-11-01 12:04:00,
2013-11-01 08:06:00,64.9,62.6,29.66,WSW,240,12.0,26.0,92,0.00,,,0.00,meteohub,2013-11-01 12:06:00,
2013-11-01 08:07:00,64.9,62.6,29.66,SSW,207,11.0,26.0,92,0.00,,,0.00,meteohub,2013-11-01 12:07:00,
2013-11-01 08:08:00,64.9,62.6,29.65,SW,234,18.0,26.0,92,0.00,,,0.00,meteohub,2013-11-01 12:08:00,
2013-11-01 08:09:00,64.8,62.4,29.66,SW,234,6.0,26.0,92,0.00,,,0.00,meteohub,2013-11-01 12:09:00,
2013-11-01 08:11:00,64.8,62.1,29.66,WSW,253,7.0,26.0,91,0.00,,,0.00,meteohub,2013-11-01 12:11:00,
2013-11-01 08:12:00,64.8,62.1,29.66,WSW,250,11.0,26.0,91,0.00,,,0.00,meteohub,2013-11-01 12:12:00,
2013-11-01 08:13:00,64.8,62.4,29.66,SW,234,9.0,26.0,92,0.00,,,0.00,meteohub,2013-11-01 12:13:00,
2013-11-01 08:14:00,64.9,62.6,29.66,SW,219,10.0,26.0,92,0.00,,,0.00,meteohub,2013-11-01 12:14:00,
2013-11-01 08:16:00,64.9,62.6,29.66,SSW,210,15.0,21.0,92,0.00,,,0.00,meteohub,2013-11-01 12:16:00,
2013-11-01 08:17:00,64.9,62.6,29.66,SW,216,12.0,21.0,92,0.00,,,0.00,meteohub,2013-11-01 12:17:00,
2013-11-01 08:18:00,64.9,62.6,29.66,WSW,242,11.0,21.0,92,0.00,,,0.00,meteohub,2013-11-01 12:18:00,
2013-11-01 08:20:00,64.9,62.6,29.66,SW,232,11.0,21.0,92,0.00,,,0.00,meteohub,2013-11-01 12:20:00,
2013-11-01 08:21:00,64.9,62.6,29.66,WSW,250,15.0,21.0,92,0.00,,,0.00,meteohub,2013-11-01 12:21:00,
2013-11-01 08:22:00,65.1,62.8,29.66,WSW,240,19.0,21.0,92,0.00,,,0.00,meteohub,2013-11-01 12:22:00,
2013-11-01 08:24:00,65.1,62.4,29.66,SW,231,12.0,21.0,91,0.00,,,0.00,meteohub,2013-11-01 12:24:00,
2013-11-01 08:25:00,65.1,62.4,29.66,SSW,211,15.0,26.0,91,0.00,,,0.00,meteohub,2013-11-01 12:25:00,
2013-11-01 08:26:00,65.3,62.6,29.66,WSW,253,13.0,26.0,91,0.00,,,0.00,meteohub,2013-11-01 12:26:00,
2013-11-01 08:27:00,65.3,62.6,29.66,SW,236,20.0,26.0,91,0.00,,,0.00,meteohub,2013-11-01 12:27:00,
2013-11-01 08:28:00,65.5,62.8,29.66,SW,223,18.0,26.0,91,0.00,,,0.00,meteohub,2013-11-01 12:28:00,
2013-11-01 08:29:00,65.5,62.8,29.66,South,191,13.0,26.0,91,0.00,,,0.00,meteohub,2013-11-01 12:29:00,
2013-11-01 08:31:00,65.5,62.8,29.66,SSW,198,11.0,26.0,91,0.00,,,0.00,meteohub,2013-11-01 12:31:00,
2013-11-01 08:32:00,65.7,63.0,29.66,SW,224,24.0,26.0,91,0.00,,,0.00,meteohub,2013-11-01 12:32:00,
2013-11-01 08:33:00,65.7,63.0,29.66,SSW,206,11.0,26.0,91,0.00,,,0.00,meteohub,2013-11-01 12:33:00,
2013-11-01 08:34:00,65.7,62.6,29.66,SW,223,10.0,26.0,90,0.00,,,0.00,meteohub,2013-11-01 12:34:00,
2013-11-01 08:36:00,65.7,62.6,29.66,SSW,194,12.0,24.0,90,0.00,,,0.00,meteohub,2013-11-01 12:36:00,
2013-11-01 08:37:00,65.7,62.6,29.65,South,184,17.0,24.0,90,0.00,,,0.00,meteohub,2013-11-01 12:37:00,
2013-11-01 08:38:00,65.7,62.6,29.65,SW,216,16.0,24.0,90,0.00,,,0.00,meteohub,2013-11-01 12:38:00,
2013-11-01 08:40:00,65.7,62.6,29.65,WSW,245,14.0,24.0,90,0.00,,,0.00,meteohub,2013-11-01 12:40:00,
2013-11-01 08:41:00,65.7,62.6,29.65,SW,223,10.0,24.0,90,0.00,,,0.00,meteohub,2013-11-01 12:41:00,
2013-11-01 08:42:00,65.5,62.4,29.65,SW,220,11.0,24.0,90,0.00,,,0.00,meteohub,2013-11-01 12:42:00,
2013-11-01 08:43:00,65.5,62.4,29.65,SSW,196,9.0,24.0,90,0.00,,,0.00,meteohub,2013-11-01 12:43:00,
2013-11-01 08:45:00,65.1,62.1,29.66,SW,221,8.0,24.0,90,0.00,,,0.00,meteohub,2013-11-01 12:45:00,
2013-11-01 08:46:00,65.1,62.1,29.65,WSW,239,9.0,24.0,90,0.00,,,0.00,meteohub,2013-11-01 12:46:00,
2013-11-01 08:48:00,65.1,62.1,29.66,SSW,213,14.0,24.0,90,0.00,,,0.00,meteohub,2013-11-01 12:48:00,
2013-11-01 08:49:00,65.1,62.1,29.66,SW,231,19.0,24.0,90,0.00,,,0.00,meteohub,2013-11-01 12:49:00,
2013-11-01 08:50:00,65.1,62.1,29.66,SSE,148,15.0,21.0,90,0.00,,,0.00,meteohub,2013-11-01 12:50:00,
2013-11-01 08:51:00,65.1,62.1,29.66,SSW,198,10.0,21.0,90,0.00,,,0.00,meteohub,2013-11-01 12:51:00,
2013-11-01 08:53:00,65.1,62.1,29.66,NW,304,18.0,21.0,90,0.00,,,0.00,meteohub,2013-11-01 12:53:00,
2013-11-01 08:54:00,65.3,62.2,29.65,WSW,252,18.0,21.0,90,0.00,,,0.00,meteohub,2013-11-01 12:54:00,
2013-11-01 08:55:00,65.3,62.2,29.66,SSW,208,8.0,22.0,90,0.01,,,0.01,meteohub,2013-11-01 12:55:00,
2013-11-01 08:56:00,65.3,62.2,29.66,SSW,209,18.0,22.0,90,0.01,,,0.01,meteohub,2013-11-01 12:56:00,
2013-11-01 08:58:00,65.1,62.1,29.66,SSW,213,10.0,22.0,90,0.01,,,0.01,meteohub,2013-11-01 12:58:00,
2013-11-01 09:00:00,65.1,62.1,29.66,SW,232,8.0,22.0,90,0.01,,,0.01,meteohub,2013-11-01 13:00:00,
2013-11-01 09:01:00,65.1,62.1,29.66,SSW,196,8.0,23.0,90,0.01,,,0.01,meteohub,2013-11-01 13:01:00,
2013-11-01 09:04:00,64.9,61.9,29.65,SSW,197,9.0,23.0,90,0.01,,,0.01,meteohub,2013-11-01 13:04:00,
2013-11-01 09:05:00,64.9,61.9,29.65,SW,227,13.0,23.0,90,0.01,,,0.01,meteohub,2013-11-01 13:05:00,
2013-11-01 09:06:00,64.9,61.9,29.66,WSW,244,20.0,23.0,90,0.01,,,0.01,meteohub,2013-11-01 13:06:00,
2013-11-01 09:07:00,64.9,62.2,29.66,SW,219,13.0,23.0,91,0.01,,,0.01,meteohub,2013-11-01 13:07:00,
2013-11-01 09:10:00,64.9,62.2,29.66,SW,232,8.0,29.0,91,0.01,,,0.01,meteohub,2013-11-01 13:10:00,
2013-11-01 09:11:00,64.9,62.2,29.66,SSW,201,10.0,29.0,91,0.01,,,0.01,meteohub,2013-11-01 13:11:00,
2013-11-01 09:12:00,64.9,62.2,29.66,SW,223,8.0,29.0,91,0.01,,,0.01,meteohub,2013-11-01 13:12:00,
2013-11-01 09:13:00,64.9,62.2,29.66,SW,227,16.0,29.0,91,0.01,,,0.01,meteohub,2013-11-01 13:13:00,
2013-11-01 09:15:00,64.9,61.9,29.66,WSW,244,13.0,29.0,90,0.01,,,0.01,meteohub,2013-11-01 13:15:00,
2013-11-01 09:16:00,64.8,61.7,29.66,SW,228,12.0,29.0,90,0.01,,,0.01,meteohub,2013-11-01 13:16:00,
2013-11-01 09:17:00,64.8,61.7,29.66,WSW,247,13.0,29.0,90,0.01,,,0.01,meteohub,2013-11-01 13:17:00,
2013-11-01 09:19:00,64.8,61.7,29.65,WSW,242,9.0,29.0,90,0.01,,,0.01,meteohub,2013-11-01 13:19:00,
2013-11-01 09:21:00,64.6,61.5,29.66,SSW,199,10.0,29.0,90,0.01,,,0.01,meteohub,2013-11-01 13:21:00,
2013-11-01 09:22:00,64.6,61.5,29.66,SW,223,9.0,29.0,90,0.01,,,0.01,meteohub,2013-11-01 13:22:00,
2013-11-01 09:24:00,64.2,61.5,29.65,SSW,194,10.0,29.0,91,0.01,,,0.01,meteohub,2013-11-01 13:24:00,
2013-11-01 09:25:00,64.2,61.5,29.65,SW,219,7.0,20.0,91,0.01,,,0.01,meteohub,2013-11-01 13:25:00,
2013-11-01 09:26:00,64.2,61.5,29.65,WSW,239,8.0,20.0,91,0.01,,,0.01,meteohub,2013-11-01 13:26:00,
2013-11-01 09:27:00,64.2,61.5,29.65,SSW,210,14.0,20.0,91,0.01,,,0.01,meteohub,2013-11-01 13:27:00,
2013-11-01 09:29:00,64.2,61.5,29.65,SW,234,6.0,20.0,91,0.01,,,0.01,meteohub,2013-11-01 13:29:00,
2013-11-01 09:30:00,64.0,61.3,29.65,SSW,194,13.0,19.0,91,0.01,,,0.01,meteohub,2013-11-01 13:30:00,
2013-11-01 09:31:00,64.0,61.3,29.65,SSW,207,11.0,19.0,91,0.01,,,0.01,meteohub,2013-11-01 13:31:00,
2013-11-01 09:32:00,64.0,61.3,29.65,SW,231,12.0,19.0,91,0.01,,,0.01,meteohub,2013-11-01 13:32:00,
2013-11-01 09:36:00,64.2,61.5,29.65,WSW,244,12.0,19.0,91,0.01,,,0.01,meteohub,2013-11-01 13:36:00,
2013-11-01 09:37:00,64.2,61.5,29.65,SW,219,12.0,19.0,91,0.01,,,0.01,meteohub,2013-11-01 13:37:00,
2013-11-01 09:38:00,64.4,61.7,29.65,SW,234,6.0,19.0,91,0.01,,,0.01,meteohub,2013-11-01 13:38:00,
2013-11-01 09:42:00,64.6,61.9,29.65,SW,230,11.0,19.0,91,0.01,,,0.01,meteohub,2013-11-01 13:42:00,
2013-11-01 09:43:00,64.8,62.1,29.65,SSW,203,11.0,19.0,91,0.01,,,0.01,meteohub,2013-11-01 13:43:00,
2013-11-01 09:47:00,64.8,62.1,29.64,SW,215,13.0,19.0,91,0.01,,,0.01,meteohub,2013-11-01 13:47:00,
2013-11-01 09:48:00,64.8,62.1,29.65,SW,217,9.0,19.0,91,0.01,,,0.01,meteohub,2013-11-01 13:48:00,
2013-11-01 09:49:00,64.8,62.1,29.65,SSW,200,7.0,19.0,91,0.01,,,0.01,meteohub,2013-11-01 13:49:00,
2013-11-01 09:52:00,64.8,62.1,29.65,SSW,193,16.0,21.0,91,0.00,,,0.01,meteohub,2013-11-01 13:52:00,
2013-11-01 09:54:00,64.8,62.1,29.65,SSW,211,17.0,21.0,91,0.00,,,0.01,meteohub,2013-11-01 13:54:00,
2013-11-01 09:55:00,64.8,62.1,29.65,West,261,15.0,21.0,91,0.00,,,0.01,meteohub,2013-11-01 13:55:00,
2013-11-01 09:57:00,64.9,62.2,29.65,SSW,209,12.0,21.0,91,0.00,,,0.01,meteohub,2013-11-01 13:57:00,
2013-11-01 09:58:00,64.9,62.2,29.65,SSW,199,10.0,21.0,91,0.00,,,0.01,meteohub,2013-11-01 13:58:00,
2013-11-01 09:59:00,64.9,62.2,29.65,SW,234,14.0,21.0,91,0.00,,,0.01,meteohub,2013-11-01 13:59:00,
2013-11-01 10:00:00,64.9,62.2,29.64,SW,221,12.0,22.0,91,0.00,,,0.01,meteohub,2013-11-01 14:00:00,
2013-11-01 10:02:00,65.1,62.4,29.65,South,178,8.0,22.0,91,0.00,,,0.01,meteohub,2013-11-01 14:02:00,
2013-11-01 10:03:00,65.1,62.4,29.65,SSW,205,12.0,22.0,91,0.00,,,0.01,meteohub,2013-11-01 14:03:00,
2013-11-01 10:04:00,65.1,62.4,29.65,SSW,202,15.0,22.0,91,0.00,,,0.01,meteohub,2013-11-01 14:04:00,
2013-11-01 10:05:00,65.1,62.4,29.65,SW,215,13.0,22.0,91,0.00,,,0.01,meteohub,2013-11-01 14:05:00,
2013-11-01 10:06:00,65.1,62.1,29.65,SSW,199,17.0,22.0,90,0.00,,,0.01,meteohub,2013-11-01 14:06:00,
2013-11-01 10:07:00,65.1,62.1,29.65,WSW,248,14.0,22.0,90,0.00,,,0.01,meteohub,2013-11-01 14:07:00,
2013-11-01 10:08:00,65.1,62.1,29.65,SW,217,11.0,22.0,90,0.00,,,0.01,meteohub,2013-11-01 14:08:00,
2013-11-01 10:09:00,65.1,62.1,29.65,West,263,13.0,22.0,90,0.00,,,0.01,meteohub,2013-11-01 14:09:00,
2013-11-01 10:10:00,65.1,62.1,29.65,South,173,7.0,22.0,90,0.00,,,0.01,meteohub,2013-11-01 14:10:00,
2013-11-01 10:12:00,65.1,62.4,29.65,SSW,207,17.0,21.0,91,0.00,,,0.01,meteohub,2013-11-01 14:12:00,
2013-11-01 10:13:00,65.1,62.1,29.65,WSW,239,12.0,21.0,90,0.00,,,0.01,meteohub,2013-11-01 14:13:00,
2013-11-01 10:15:00,65.1,62.4,29.65,SSW,192,9.0,22.0,91,0.00,,,0.01,meteohub,2013-11-01 14:15:00,
2013-11-01 10:17:00,65.1,62.4,29.65,SSW,199,8.0,22.0,91,0.00,,,0.01,meteohub,2013-11-01 14:17:00,
2013-11-01 10:18:00,65.1,62.4,29.65,SSW,204,6.0,22.0,91,0.00,,,0.01,meteohub,2013-11-01 14:18:00,
2013-11-01 10:19:00,65.1,62.4,29.65,WSW,240,11.0,22.0,91,0.00,,,0.01,meteohub,2013-11-01 14:19:00,
2013-11-01 10:21:00,65.1,62.4,29.65,SW,225,8.0,22.0,91,0.00,,,0.01,meteohub,2013-11-01 14:21:00,
2013-11-01 10:22:00,65.1,62.4,29.65,SW,226,10.0,22.0,91,0.00,,,0.01,meteohub,2013-11-01 14:22:00,
2013-11-01 10:23:00,65.1,62.4,29.65,South,171,15.0,22.0,91,0.00,,,0.01,meteohub,2013-11-01 14:23:00,
2013-11-01 10:24:00,65.1,62.4,29.65,SW,220,12.0,22.0,91,0.00,,,0.01,meteohub,2013-11-01 14:24:00,
2013-11-01 10:25:00,65.1,62.8,29.66,SSW,199,16.0,22.0,92,0.00,,,0.01,meteohub,2013-11-01 14:25:00,
2013-11-01 10:26:00,65.3,63.0,29.65,WSW,241,13.0,22.0,92,0.00,,,0.01,meteohub,2013-11-01 14:26:00,
2013-11-01 10:27:00,65.3,63.0,29.65,SW,221,10.0,22.0,92,0.00,,,0.01,meteohub,2013-11-01 14:27:00,
2013-11-01 10:28:00,65.5,63.1,29.65,WSW,243,16.0,22.0,92,0.00,,,0.01,meteohub,2013-11-01 14:28:00,
2013-11-01 10:30:00,65.5,63.1,29.66,South,191,12.0,22.0,92,0.00,,,0.01,meteohub,2013-11-01 14:30:00,
2013-11-01 10:32:00,65.7,63.0,29.65,SSW,203,13.0,22.0,91,0.00,,,0.01,meteohub,2013-11-01 14:32:00,
2013-11-01 10:35:00,65.7,63.0,29.65,SSW,192,11.0,22.0,91,0.00,,,0.01,meteohub,2013-11-01 14:35:00,
2013-11-01 10:36:00,65.7,63.0,29.65,SW,236,14.0,22.0,91,0.00,,,0.01,meteohub,2013-11-01 14:36:00,
2013-11-01 10:37:00,65.7,63.0,29.65,SW,227,17.0,22.0,91,0.00,,,0.01,meteohub,2013-11-01 14:37:00,
2013-11-01 10:38:00,65.7,63.0,29.65,SW,227,16.0,22.0,91,0.00,,,0.01,meteohub,2013-11-01 14:38:00,
2013-11-01 10:40:00,65.7,63.0,29.65,SSW,205,11.0,23.0,91,0.00,,,0.01,meteohub,2013-11-01 14:40:00,
2013-11-01 10:41:00,65.7,63.0,29.65,SW,230,14.0,23.0,91,0.00,,,0.01,meteohub,2013-11-01 14:41:00,
2013-11-01 10:42:00,65.7,63.0,29.65,WSW,245,14.0,23.0,91,0.00,,,0.01,meteohub,2013-11-01 14:42:00,
2013-11-01 10:43:00,65.7,63.0,29.65,SW,223,14.0,23.0,91,0.00,,,0.01,meteohub,2013-11-01 14:43:00,
2013-11-01 10:45:00,65.8,63.5,29.65,WSW,242,15.0,23.0,92,0.00,,,0.01,meteohub,2013-11-01 14:45:00,
2013-11-01 10:47:00,65.8,63.5,29.65,SW,219,12.0,23.0,92,0.00,,,0.01,meteohub,2013-11-01 14:47:00,
2013-11-01 10:48:00,65.8,63.5,29.65,SSW,199,11.0,23.0,92,0.00,,,0.01,meteohub,2013-11-01 14:48:00,
2013-11-01 10:49:00,65.8,63.5,29.65,SW,229,16.0,23.0,92,0.00,,,0.01,meteohub,2013-11-01 14:49:00,
2013-11-01 10:51:00,66.0,63.3,29.65,SW,227,15.0,23.0,91,0.00,,,0.01,meteohub,2013-11-01 14:51:00,
2013-11-01 10:53:00,66.0,63.3,29.65,SSW,196,10.0,23.0,91,0.00,,,0.01,meteohub,2013-11-01 14:53:00,
2013-11-01 10:54:00,66.0,63.3,29.65,SW,219,17.0,23.0,91,0.00,,,0.01,meteohub,2013-11-01 14:54:00,
2013-11-01 10:55:00,66.0,63.3,29.64,SW,220,15.0,25.0,91,0.00,,,0.01,meteohub,2013-11-01 14:55:00,
2013-11-01 10:57:00,66.0,63.3,29.65,SW,236,15.0,25.0,91,0.00,,,0.01,meteohub,2013-11-01 14:57:00,
2013-11-01 10:58:00,66.0,63.3,29.65,SW,219,17.0,25.0,91,0.00,,,0.01,meteohub,2013-11-01 14:58:00,
2013-11-01 10:59:00,66.2,63.5,29.65,West,261,19.0,25.0,91,0.00,,,0.01,meteohub,2013-11-01 14:59:00,
2013-11-01 11:00:00,66.2,63.5,29.65,WSW,239,8.0,25.0,91,0.00,,,0.01,meteohub,2013-11-01 15:00:00,
2013-11-01 11:02:00,66.0,63.3,29.65,WSW,239,9.0,25.0,91,0.00,,,0.01,meteohub,2013-11-01 15:02:00,
2013-11-01 11:04:00,66.0,63.3,29.65,SSW,210,12.0,25.0,91,0.00,,,0.01,meteohub,2013-11-01 15:04:00,
2013-11-01 11:05:00,65.8,63.1,29.64,SSW,208,9.0,25.0,91,0.00,,,0.01,meteohub,2013-11-01 15:05:00,
2013-11-01 11:06:00,65.8,63.1,29.65,South,182,12.0,25.0,91,0.00,,,0.01,meteohub,2013-11-01 15:06:00,
2013-11-01 11:07:00,65.8,63.1,29.65,SW,222,14.0,25.0,91,0.00,,,0.01,meteohub,2013-11-01 15:07:00,
2013-11-01 11:09:00,65.7,63.0,29.65,SW,226,13.0,25.0,91,0.00,,,0.01,meteohub,2013-11-01 15:09:00,
2013-11-01 11:10:00,65.5,62.8,29.65,WSW,254,9.0,25.0,91,0.01,,,0.02,meteohub,2013-11-01 15:10:00,
2013-11-01 11:11:00,65.5,62.8,29.65,SW,234,9.0,25.0,91,0.01,,,0.02,meteohub,2013-11-01 15:11:00,
2013-11-01 11:13:00,65.1,62.4,29.65,SW,220,19.0,25.0,91,0.01,,,0.02,meteohub,2013-11-01 15:13:00,
2013-11-01 11:16:00,64.9,62.2,29.65,SSW,200,9.0,25.0,91,0.01,,,0.02,meteohub,2013-11-01 15:16:00,
2013-11-01 11:18:00,64.9,62.2,29.65,SW,223,9.0,25.0,91,0.01,,,0.02,meteohub,2013-11-01 15:18:00,
2013-11-01 11:21:00,64.9,62.6,29.65,South,184,14.0,22.0,92,0.01,,,0.02,meteohub,2013-11-01 15:21:00,
2013-11-01 11:22:00,64.9,62.6,29.65,SW,234,10.0,22.0,92,0.01,,,0.02,meteohub,2013-11-01 15:22:00,
2013-11-01 11:23:00,64.9,62.6,29.65,SSW,198,12.0,22.0,92,0.01,,,0.02,meteohub,2013-11-01 15:23:00,
2013-11-01 11:27:00,64.9,62.6,29.65,WSW,237,16.0,19.0,92,0.01,,,0.02,meteohub,2013-11-01 15:27:00,
2013-11-01 11:28:00,64.9,62.6,29.65,SSW,213,13.0,19.0,92,0.01,,,0.02,meteohub,2013-11-01 15:28:00,
2013-11-01 11:29:00,64.9,62.6,29.65,WSW,244,9.0,19.0,92,0.01,,,0.02,meteohub,2013-11-01 15:29:00,
2013-11-01 11:32:00,64.9,62.8,29.65,South,180,12.0,22.0,93,0.01,,,0.02,meteohub,2013-11-01 15:32:00,
2013-11-01 11:33:00,64.9,62.8,29.65,SSW,213,10.0,22.0,93,0.01,,,0.02,meteohub,2013-11-01 15:33:00,
2013-11-01 11:34:00,64.9,62.8,29.66,WSW,238,16.0,22.0,93,0.01,,,0.02,meteohub,2013-11-01 15:34:00,
2013-11-01 11:35:00,64.9,62.8,29.67,WSW,254,9.0,22.0,93,0.01,,,0.02,meteohub,2013-11-01 15:35:00,
2013-11-01 11:37:00,64.6,61.9,29.68,WSW,244,14.0,22.0,91,0.01,,,0.02,meteohub,2013-11-01 15:37:00,
2013-11-01 11:39:00,63.9,61.5,29.68,West,276,8.0,22.0,92,0.01,,,0.02,meteohub,2013-11-01 15:39:00,
2013-11-01 11:40:00,63.7,61.3,29.67,WNW,294,7.0,22.0,92,0.01,,,0.03,meteohub,2013-11-01 15:40:00,
2013-11-01 11:42:00,63.1,60.8,29.67,West,273,12.0,23.0,92,0.02,,,0.03,meteohub,2013-11-01 15:42:00,
2013-11-01 11:43:00,63.1,60.8,29.68,WSW,248,8.0,23.0,92,0.02,,,0.03,meteohub,2013-11-01 15:43:00,
2013-11-01 11:44:00,63.0,60.6,29.68,WSW,245,9.0,23.0,92,0.02,,,0.03,meteohub,2013-11-01 15:44:00,
2013-11-01 11:45:00,63.0,60.6,29.68,WSW,246,4.0,23.0,92,0.04,,,0.05,meteohub,2013-11-01 15:45:00,
2013-11-01 11:47:00,63.0,61.0,29.68,West,268,8.0,23.0,93,0.04,,,0.05,meteohub,2013-11-01 15:47:00,
2013-11-01 11:48:00,63.0,61.0,29.68,West,271,7.0,23.0,93,0.04,,,0.05,meteohub,2013-11-01 15:48:00,
2013-11-01 11:49:00,63.0,61.0,29.68,West,266,4.0,23.0,93,0.04,,,0.05,meteohub,2013-11-01 15:49:00,
2013-11-01 11:51:00,63.0,61.0,29.69,WSW,246,9.0,16.0,93,0.07,,,0.08,meteohub,2013-11-01 15:51:00,
2013-11-01 11:52:00,62.8,60.8,29.69,WNW,290,4.0,16.0,93,0.07,,,0.08,meteohub,2013-11-01 15:52:00,
2013-11-01 11:53:00,62.8,60.8,29.68,West,262,8.0,16.0,93,0.07,,,0.08,meteohub,2013-11-01 15:53:00,
2013-11-01 11:54:00,62.8,60.8,29.68,WSW,254,4.0,16.0,93,0.07,,,0.08,meteohub,2013-11-01 15:54:00,
2013-11-01 11:55:00,62.8,60.8,29.69,SW,236,5.0,16.0,93,0.08,,,0.09,meteohub,2013-11-01 15:55:00,
2013-11-01 11:56:00,62.8,60.8,29.68,SW,229,8.0,16.0,93,0.08,,,0.09,meteohub,2013-11-01 15:56:00,
2013-11-01 11:58:00,62.6,60.8,29.68,West,279,7.0,16.0,94,0.08,,,0.09,meteohub,2013-11-01 15:58:00,
2013-11-01 11:59:00,62.4,60.4,29.68,WSW,258,4.0,16.0,93,0.08,,,0.09,meteohub,2013-11-01 15:59:00,
2013-11-01 12:01:00,62.4,60.4,29.68,WSW,245,2.0,16.0,93,0.08,,,0.09,meteohub,2013-11-01 16:01:00,
2013-11-01 12:02:00,62.4,60.4,29.68,WSW,251,4.0,16.0,93,0.08,,,0.09,meteohub,2013-11-01 16:02:00,
2013-11-01 12:03:00,62.2,60.3,29.68,WNW,288,7.0,16.0,93,0.08,,,0.09,meteohub,2013-11-01 16:03:00,
2013-11-01 12:04:00,62.2,60.3,29.68,SW,235,5.0,16.0,93,0.08,,,0.09,meteohub,2013-11-01 16:04:00,
2013-11-01 12:06:00,62.1,60.1,29.68,SW,234,9.0,11.0,93,0.08,,,0.10,meteohub,2013-11-01 16:06:00,
2013-11-01 12:07:00,62.1,60.1,29.68,WSW,245,7.0,11.0,93,0.08,,,0.10,meteohub,2013-11-01 16:07:00,
2013-11-01 12:09:00,61.9,59.9,29.68,WNW,292,3.0,11.0,93,0.08,,,0.10,meteohub,2013-11-01 16:09:00,
2013-11-01 12:10:00,61.9,59.9,29.67,West,268,7.0,11.0,93,0.08,,,0.10,meteohub,2013-11-01 16:10:00,
2013-11-01 12:11:00,61.7,59.7,29.67,WSW,240,10.0,10.0,93,0.08,,,0.10,meteohub,2013-11-01 16:11:00,
2013-11-01 12:13:00,61.7,59.7,29.67,WSW,250,8.0,10.0,93,0.08,,,0.10,meteohub,2013-11-01 16:13:00,
2013-11-01 12:14:00,61.5,59.7,29.68,SW,232,7.0,10.0,94,0.08,,,0.10,meteohub,2013-11-01 16:14:00,
2013-11-01 12:15:00,61.5,59.7,29.67,WSW,242,6.0,10.0,94,0.08,,,0.10,meteohub,2013-11-01 16:15:00,
2013-11-01 12:16:00,61.5,59.5,29.68,WSW,254,3.0,15.0,93,0.08,,,0.10,meteohub,2013-11-01 16:16:00,
2013-11-01 12:19:00,61.5,59.7,29.67,WSW,238,8.0,15.0,94,0.08,,,0.10,meteohub,2013-11-01 16:19:00,
2013-11-01 12:20:00,61.5,59.7,29.67,WSW,246,7.0,15.0,94,0.08,,,0.10,meteohub,2013-11-01 16:20:00,
2013-11-01 12:21:00,61.5,59.7,29.67,WSW,254,8.0,15.0,94,0.08,,,0.10,meteohub,2013-11-01 16:21:00,
2013-11-01 12:22:00,61.5,59.7,29.67,WSW,240,4.0,15.0,94,0.08,,,0.10,meteohub,2013-11-01 16:22:00,
2013-11-01 12:25:00,61.3,59.5,29.67,WSW,249,7.0,15.0,94,0.08,,,0.11,meteohub,2013-11-01 16:25:00,
2013-11-01 12:26:00,61.3,59.5,29.67,SW,220,6.0,12.0,94,0.09,,,0.11,meteohub,2013-11-01 16:26:00,
2013-11-01 12:27:00,61.3,59.5,29.67,SW,236,7.0,12.0,94,0.09,,,0.11,meteohub,2013-11-01 16:27:00,
2013-11-01 12:30:00,61.3,59.5,29.67,WSW,243,4.0,10.0,94,0.09,,,0.11,meteohub,2013-11-01 16:30:00,
2013-11-01 12:31:00,61.3,59.5,29.67,WSW,250,7.0,10.0,94,0.09,,,0.11,meteohub,2013-11-01 16:31:00,
2013-11-01 12:32:00,61.3,59.5,29.67,SW,216,7.0,10.0,94,0.09,,,0.11,meteohub,2013-11-01 16:32:00,
2013-11-01 12:35:00,61.3,59.5,29.67,WSW,252,5.0,10.0,94,0.09,,,0.11,meteohub,2013-11-01 16:35:00,
2013-11-01 12:36:00,61.3,59.5,29.67,SW,233,13.0,13.0,94,0.09,,,0.11,meteohub,2013-11-01 16:36:00,
2013-11-01 12:37:00,61.2,59.4,29.67,SW,232,11.0,11.0,94,0.09,,,0.11,meteohub,2013-11-01 16:37:00,
2013-11-01 12:38:00,61.2,59.4,29.67,WSW,245,7.0,10.0,94,0.09,,,0.11,meteohub,2013-11-01 16:38:00,
2013-11-01 12:41:00,61.2,59.4,29.66,WSW,249,8.0,14.0,94,0.06,,,0.11,meteohub,2013-11-01 16:41:00,
2013-11-01 12:42:00,61.2,59.4,29.66,WSW,246,11.0,14.0,94,0.06,,,0.11,meteohub,2013-11-01 16:42:00,
2013-11-01 12:43:00,61.2,59.4,29.66,WSW,242,11.0,14.0,94,0.06,,,0.11,meteohub,2013-11-01 16:43:00,
2013-11-01 12:46:00,61.0,59.2,29.67,WSW,242,8.0,14.0,94,0.05,,,0.11,meteohub,2013-11-01 16:46:00,
2013-11-01 12:47:00,61.0,59.2,29.67,SW,229,9.0,14.0,94,0.05,,,0.11,meteohub,2013-11-01 16:47:00,
2013-11-01 12:48:00,61.0,59.2,29.66,West,259,7.0,14.0,94,0.05,,,0.11,meteohub,2013-11-01 16:48:00,
2013-11-01 12:50:00,60.8,59.0,29.66,WSW,254,5.0,14.0,94,0.05,,,0.11,meteohub,2013-11-01 16:50:00,
2013-11-01 12:51:00,60.8,59.0,29.66,WSW,241,9.0,14.0,94,0.03,,,0.11,meteohub,2013-11-01 16:51:00,
2013-11-01 12:52:00,60.8,59.0,29.66,WSW,240,5.0,14.0,94,0.03,,,0.11,meteohub,2013-11-01 16:52:00,
2013-11-01 12:53:00,60.8,59.0,29.66,WSW,242,4.0,14.0,94,0.03,,,0.11,meteohub,2013-11-01 16:53:00,
2013-11-01 12:54:00,60.6,58.8,29.66,WSW,248,14.0,14.0,94,0.03,,,0.11,meteohub,2013-11-01 16:54:00,
2013-11-01 12:55:00,60.6,58.8,29.66,West,265,12.0,14.0,94,0.03,,,0.11,meteohub,2013-11-01 16:55:00,
2013-11-01 12:56:00,60.6,58.8,29.66,WSW,240,6.0,13.0,94,0.02,,,0.11,meteohub,2013-11-01 16:56:00,
2013-11-01 12:57:00,60.6,58.8,29.66,WSW,250,7.0,13.0,94,0.02,,,0.11,meteohub,2013-11-01 16:57:00,
2013-11-01 12:58:00,60.6,58.8,29.66,SW,217,6.0,13.0,94,0.02,,,0.11,meteohub,2013-11-01 16:58:00,
2013-11-01 12:59:00,60.6,58.8,29.66,West,260,8.0,13.0,94,0.02,,,0.11,meteohub,2013-11-01 16:59:00,
2013-11-01 13:00:00,60.6,58.8,29.66,WSW,242,8.0,13.0,94,0.02,,,0.11,meteohub,2013-11-01 17:00:00,
2013-11-01 13:01:00,60.6,58.8,29.66,SW,229,12.0,14.0,94,0.01,,,0.11,meteohub,2013-11-01 17:01:00,
2013-11-01 13:02:00,60.6,58.8,29.66,WSW,244,11.0,14.0,94,0.01,,,0.11,meteohub,2013-11-01 17:02:00,
2013-11-01 13:03:00,60.6,58.8,29.66,WSW,245,8.0,14.0,94,0.01,,,0.11,meteohub,2013-11-01 17:03:00,
2013-11-01 13:04:00,60.6,58.8,29.66,West,259,10.0,14.0,94,0.01,,,0.11,meteohub,2013-11-01 17:04:00,
2013-11-01 13:05:00,60.6,58.8,29.66,West,262,8.0,14.0,94,0.01,,,0.11,meteohub,2013-11-01 17:05:00,
2013-11-01 13:06:00,60.6,58.8,29.66,SW,235,5.0,14.0,94,0.01,,,0.11,meteohub,2013-11-01 17:06:00,
2013-11-01 13:08:00,60.6,58.8,29.65,WSW,255,7.0,14.0,94,0.01,,,0.11,meteohub,2013-11-01 17:08:00,
2013-11-01 13:09:00,60.6,58.8,29.65,West,261,8.0,14.0,94,0.01,,,0.11,meteohub,2013-11-01 17:09:00,
2013-11-01 13:11:00,60.6,58.8,29.65,WSW,244,5.0,14.0,94,0.01,,,0.11,meteohub,2013-11-01 17:11:00,
2013-11-01 13:12:00,60.6,58.8,29.65,WSW,248,8.0,14.0,94,0.01,,,0.11,meteohub,2013-11-01 17:12:00,
2013-11-01 13:13:00,60.6,58.8,29.65,WSW,257,7.0,14.0,94,0.01,,,0.11,meteohub,2013-11-01 17:13:00,
2013-11-01 13:15:00,60.6,58.8,29.65,WSW,239,9.0,14.0,94,0.01,,,0.11,meteohub,2013-11-01 17:15:00,
2013-11-01 13:16:00,60.6,58.8,29.65,WSW,246,9.0,12.0,94,0.01,,,0.11,meteohub,2013-11-01 17:16:00,
2013-11-01 13:17:00,60.4,58.6,29.65,WSW,241,11.0,12.0,94,0.01,,,0.11,meteohub,2013-11-01 17:17:00,
2013-11-01 13:18:00,60.4,58.6,29.65,SW,236,9.0,12.0,94,0.01,,,0.11,meteohub,2013-11-01 17:18:00,
2013-11-01 13:20:00,60.4,58.6,29.65,SW,236,4.0,13.0,94,0.01,,,0.11,meteohub,2013-11-01 17:20:00,
2013-11-01 13:22:00,60.4,58.6,29.65,WSW,238,5.0,13.0,94,0.01,,,0.11,meteohub,2013-11-01 17:22:00,
2013-11-01 13:23:00,60.4,58.6,29.65,WSW,242,3.0,13.0,94,0.01,,,0.11,meteohub,2013-11-01 17:23:00,
2013-11-01 13:24:00,60.4,58.6,29.65,WSW,254,5.0,13.0,94,0.01,,,0.11,meteohub,2013-11-01 17:24:00,
2013-11-01 13:27:00,60.4,58.6,29.65,SW,236,6.0,13.0,94,0.00,,,0.11,meteohub,2013-11-01 17:27:00,
2013-11-01 13:28:00,60.4,58.6,29.65,WSW,254,9.0,13.0,94,0.00,,,0.11,meteohub,2013-11-01 17:28:00,
2013-11-01 13:29:00,60.4,58.6,29.65,WSW,244,9.0,13.0,94,0.00,,,0.11,meteohub,2013-11-01 17:29:00,
2013-11-01 13:30:00,60.4,58.6,29.64,SW,234,6.0,13.0,94,0.00,,,0.11,meteohub,2013-11-01 17:30:00,
2013-11-01 13:32:00,60.4,58.6,29.64,SW,234,5.0,13.0,94,0.00,,,0.11,meteohub,2013-11-01 17:32:00,
2013-11-01 13:33:00,60.4,58.6,29.64,SW,232,10.0,13.0,94,0.00,,,0.11,meteohub,2013-11-01 17:33:00,
2013-11-01 13:34:00,60.4,58.6,29.64,SW,234,6.0,13.0,94,0.00,,,0.11,meteohub,2013-11-01 17:34:00,
2013-11-01 13:35:00,60.4,58.6,29.64,SW,234,4.0,13.0,94,0.00,,,0.11,meteohub,2013-11-01 17:35:00,
2013-11-01 13:37:00,60.4,58.6,29.65,SW,227,10.0,13.0,94,0.00,,,0.11,meteohub,2013-11-01 17:37:00,
2013-11-01 13:38:00,60.3,58.5,29.65,WSW,239,3.0,13.0,94,0.00,,,0.11,meteohub,2013-11-01 17:38:00,
2013-11-01 13:39:00,60.3,58.5,29.64,WSW,243,4.0,13.0,94,0.00,,,0.11,meteohub,2013-11-01 17:39:00,
2013-11-01 13:40:00,60.3,58.5,29.64,WSW,240,4.0,13.0,94,0.00,,,0.11,meteohub,2013-11-01 17:40:00,
2013-11-01 13:42:00,60.3,58.5,29.64,SW,215,9.0,13.0,94,0.00,,,0.11,meteohub,2013-11-01 17:42:00,
2013-11-01 13:43:00,60.3,58.5,29.64,WSW,250,4.0,13.0,94,0.00,,,0.11,meteohub,2013-11-01 17:43:00,
2013-11-01 13:44:00,60.3,58.5,29.64,WSW,239,9.0,13.0,94,0.00,,,0.11,meteohub,2013-11-01 17:44:00,
2013-11-01 13:45:00,60.3,58.5,29.64,WSW,237,3.0,13.0,94,0.00,,,0.11,meteohub,2013-11-01 17:45:00,
2013-11-01 13:47:00,60.3,58.5,29.64,SW,225,3.0,10.0,94,0.00,,,0.11,meteohub,2013-11-01 17:47:00,
2013-11-01 13:49:00,60.3,58.5,29.64,SW,234,4.0,10.0,94,0.00,,,0.11,meteohub,2013-11-01 17:49:00,
2013-11-01 13:50:00,60.3,58.5,29.64,SSW,201,2.0,10.0,94,0.00,,,0.11,meteohub,2013-11-01 17:50:00,
2013-11-01 13:51:00,60.3,58.5,29.64,SW,223,3.0,10.0,94,0.00,,,0.11,meteohub,2013-11-01 17:51:00,
2013-11-01 13:52:00,60.3,58.5,29.64,SW,231,4.0,10.0,94,0.00,,,0.11,meteohub,2013-11-01 17:52:00,
2013-11-01 13:54:00,60.3,58.5,29.64,SW,225,3.0,10.0,94,0.00,,,0.11,meteohub,2013-11-01 17:54:00,
2013-11-01 13:56:00,60.3,58.5,29.64,SW,234,4.0,10.0,94,0.01,,,0.12,meteohub,2013-11-01 17:56:00,
2013-11-01 13:58:00,60.3,58.5,29.63,WSW,241,3.0,10.0,94,0.01,,,0.12,meteohub,2013-11-01 17:58:00,
2013-11-01 14:00:00,60.3,58.5,29.63,SW,214,4.0,10.0,94,0.01,,,0.12,meteohub,2013-11-01 18:00:00,
2013-11-01 14:02:00,60.3,58.5,29.63,WSW,237,3.0,10.0,94,0.01,,,0.12,meteohub,2013-11-01 18:02:00,
2013-11-01 14:03:00,60.3,58.5,29.63,WSW,238,4.0,10.0,94,0.01,,,0.12,meteohub,2013-11-01 18:03:00,
2013-11-01 14:04:00,60.3,58.5,29.63,SE,140,3.0,10.0,94,0.01,,,0.12,meteohub,2013-11-01 18:04:00,
2013-11-01 14:05:00,60.3,58.8,29.63,SSW,211,3.0,10.0,95,0.01,,,0.12,meteohub,2013-11-01 18:05:00,
2013-11-01 14:06:00,60.3,58.8,29.62,SSW,204,4.0,10.0,95,0.01,,,0.12,meteohub,2013-11-01 18:06:00,
2013-11-01 14:08:00,60.3,58.8,29.63,SW,225,3.0,10.0,95,0.01,,,0.12,meteohub,2013-11-01 18:08:00,
2013-11-01 14:09:00,60.4,59.0,29.63,SSW,213,2.0,10.0,95,0.01,,,0.12,meteohub,2013-11-01 18:09:00,
2013-11-01 14:10:00,60.4,59.0,29.63,SW,217,2.0,8.0,95,0.01,,,0.12,meteohub,2013-11-01 18:10:00,
2013-11-01 14:11:00,60.4,59.0,29.63,SSW,195,6.0,8.0,95,0.01,,,0.12,meteohub,2013-11-01 18:11:00,
2013-11-01 14:12:00,60.4,59.0,29.63,SW,228,5.0,8.0,95,0.01,,,0.12,meteohub,2013-11-01 18:12:00,
2013-11-01 14:14:00,60.4,59.0,29.62,SSW,213,3.0,8.0,95,0.01,,,0.12,meteohub,2013-11-01 18:14:00,
2013-11-01 14:16:00,60.4,59.0,29.62,SW,217,3.0,8.0,95,0.01,,,0.12,meteohub,2013-11-01 18:16:00,
2013-11-01 14:17:00,60.4,59.0,29.62,SW,229,7.0,8.0,95,0.01,,,0.12,meteohub,2013-11-01 18:17:00,
2013-11-01 14:19:00,60.6,59.2,29.62,SW,217,3.0,8.0,95,0.01,,,0.12,meteohub,2013-11-01 18:19:00,
2013-11-01 14:21:00,60.6,59.2,29.63,SW,231,5.0,8.0,95,0.01,,,0.12,meteohub,2013-11-01 18:21:00,
2013-11-01 14:22:00,60.6,59.2,29.63,SW,225,3.0,8.0,95,0.01,,,0.12,meteohub,2013-11-01 18:22:00,
2013-11-01 14:25:00,60.8,59.4,29.62,SW,231,3.0,8.0,95,0.01,,,0.12,meteohub,2013-11-01 18:25:00,
2013-11-01 14:26:00,60.8,59.4,29.62,SW,223,7.0,9.0,95,0.01,,,0.12,meteohub,2013-11-01 18:26:00,
2013-11-01 14:27:00,60.8,59.4,29.62,WSW,237,4.0,9.0,95,0.01,,,0.12,meteohub,2013-11-01 18:27:00,
2013-11-01 14:28:00,60.8,59.4,29.62,WSW,258,3.0,9.0,95,0.01,,,0.12,meteohub,2013-11-01 18:28:00,
2013-11-01 14:30:00,61.0,59.5,29.62,SW,230,4.0,10.0,95,0.01,,,0.12,meteohub,2013-11-01 18:30:00,
2013-11-01 14:31:00,61.0,59.5,29.62,SW,228,3.0,10.0,95,0.01,,,0.12,meteohub,2013-11-01 18:31:00,
2013-11-01 14:32:00,61.0,59.5,29.62,SW,221,4.0,10.0,95,0.01,,,0.12,meteohub,2013-11-01 18:32:00,
2013-11-01 14:34:00,61.0,59.5,29.62,SW,219,4.0,10.0,95,0.01,,,0.12,meteohub,2013-11-01 18:34:00,
2013-11-01 14:36:00,61.2,59.7,29.62,SW,229,5.0,10.0,95,0.01,,,0.12,meteohub,2013-11-01 18:36:00,
2013-11-01 14:37:00,61.2,59.7,29.62,SW,216,4.0,10.0,95,0.01,,,0.12,meteohub,2013-11-01 18:37:00,
2013-11-01 14:38:00,61.2,59.7,29.62,SSW,213,7.0,10.0,95,0.01,,,0.12,meteohub,2013-11-01 18:38:00,
2013-11-01 14:39:00,61.2,59.7,29.62,SSW,208,9.0,10.0,95,0.01,,,0.12,meteohub,2013-11-01 18:39:00,
2013-11-01 14:42:00,61.2,59.4,29.61,SW,228,5.0,10.0,94,0.01,,,0.12,meteohub,2013-11-01 18:42:00,
2013-11-01 14:43:00,61.2,59.4,29.61,SW,232,4.0,10.0,94,0.01,,,0.12,meteohub,2013-11-01 18:43:00,
2013-11-01 14:44:00,61.2,59.4,29.61,SW,227,2.0,10.0,94,0.01,,,0.12,meteohub,2013-11-01 18:44:00,
2013-11-01 14:47:00,61.2,59.4,29.61,SW,219,4.0,10.0,94,0.01,,,0.12,meteohub,2013-11-01 18:47:00,
2013-11-01 14:48:00,61.2,59.4,29.61,SW,229,4.0,10.0,94,0.01,,,0.12,meteohub,2013-11-01 18:48:00,
2013-11-01 14:49:00,61.3,59.5,29.61,SSW,195,5.0,10.0,94,0.01,,,0.12,meteohub,2013-11-01 18:49:00,
2013-11-01 14:53:00,61.3,59.5,29.62,SW,221,7.0,10.0,94,0.00,,,0.12,meteohub,2013-11-01 18:53:00,
2013-11-01 14:54:00,61.3,59.5,29.62,WSW,246,5.0,10.0,94,0.00,,,0.12,meteohub,2013-11-01 18:54:00,
2013-11-01 14:58:00,61.5,59.7,29.62,SW,236,3.0,11.0,94,0.00,,,0.12,meteohub,2013-11-01 18:58:00,
2013-11-01 14:59:00,61.5,59.7,29.62,SW,229,4.0,11.0,94,0.00,,,0.12,meteohub,2013-11-01 18:59:00,
2013-11-01 15:00:00,61.5,59.7,29.62,SW,225,7.0,11.0,94,0.00,,,0.12,meteohub,2013-11-01 19:00:00,
2013-11-01 15:04:00,61.5,59.7,29.62,WSW,244,7.0,11.0,94,0.00,,,0.12,meteohub,2013-11-01 19:04:00,
2013-11-01 15:05:00,61.5,59.7,29.62,SW,223,8.0,11.0,94,0.00,,,0.12,meteohub,2013-11-01 19:05:00,
2013-11-01 15:06:00,61.5,59.7,29.62,SW,233,8.0,12.0,94,0.00,,,0.12,meteohub,2013-11-01 19:06:00,
2013-11-01 15:07:00,61.5,59.7,29.62,WSW,240,5.0,12.0,94,0.00,,,0.12,meteohub,2013-11-01 19:07:00,
2013-11-01 15:09:00,61.5,59.7,29.63,WSW,254,4.0,12.0,94,0.00,,,0.12,meteohub,2013-11-01 19:09:00,
2013-11-01 15:10:00,61.5,59.7,29.63,SW,222,6.0,12.0,94,0.00,,,0.12,meteohub,2013-11-01 19:10:00,
2013-11-01 15:11:00,61.5,59.7,29.63,WSW,242,6.0,12.0,94,0.00,,,0.12,meteohub,2013-11-01 19:11:00,
2013-11-01 15:13:00,61.7,59.9,29.63,SW,235,5.0,12.0,94,0.00,,,0.12,meteohub,2013-11-01 19:13:00,
2013-11-01 15:14:00,61.7,59.9,29.64,WSW,240,3.0,12.0,94,0.00,,,0.12,meteohub,2013-11-01 19:14:00,
2013-11-01 15:15:00,61.7,59.7,29.63,SW,224,4.0,12.0,93,0.00,,,0.12,meteohub,2013-11-01 19:15:00,
2013-11-01 15:16:00,61.7,59.7,29.63,SSW,200,6.0,12.0,93,0.00,,,0.12,meteohub,2013-11-01 19:16:00,
2013-11-01 15:17:00,61.7,59.9,29.63,SSW,211,7.0,12.0,94,0.00,,,0.12,meteohub,2013-11-01 19:17:00,
2013-11-01 15:18:00,61.7,59.9,29.63,WSW,242,6.0,12.0,94,0.00,,,0.12,meteohub,2013-11-01 19:18:00,
2013-11-01 15:20:00,61.9,60.1,29.63,SSW,207,4.0,12.0,94,0.00,,,0.12,meteohub,2013-11-01 19:20:00,
2013-11-01 15:21:00,61.9,60.1,29.63,SSW,207,7.0,11.0,94,0.00,,,0.12,meteohub,2013-11-01 19:21:00,
2013-11-01 15:22:00,61.9,60.1,29.63,WSW,249,8.0,11.0,94,0.00,,,0.12,meteohub,2013-11-01 19:22:00,
2013-11-01 15:23:00,61.9,60.1,29.62,WSW,238,4.0,11.0,94,0.00,,,0.12,meteohub,2013-11-01 19:23:00,
2013-11-01 15:24:00,61.9,60.1,29.62,WSW,248,8.0,11.0,94,0.00,,,0.12,meteohub,2013-11-01 19:24:00,
2013-11-01 15:25:00,61.9,60.1,29.63,SW,229,3.0,11.0,94,0.00,,,0.12,meteohub,2013-11-01 19:25:00,
2013-11-01 15:26:00,61.9,60.1,29.63,SW,236,5.0,11.0,94,0.00,,,0.12,meteohub,2013-11-01 19:26:00,
2013-11-01 15:27:00,61.9,60.1,29.62,SW,227,3.0,11.0,94,0.00,,,0.12,meteohub,2013-11-01 19:27:00,
2013-11-01 15:29:00,62.1,60.3,29.62,West,270,6.0,11.0,94,0.00,,,0.12,meteohub,2013-11-01 19:29:00,
2013-11-01 15:30:00,62.1,60.3,29.62,WSW,240,2.0,10.0,94,0.00,,,0.12,meteohub,2013-11-01 19:30:00,
2013-11-01 15:31:00,62.1,60.3,29.62,WSW,243,5.0,10.0,94,0.00,,,0.12,meteohub,2013-11-01 19:31:00,
2013-11-01 15:32:00,62.1,60.3,29.62,SW,227,4.0,10.0,94,0.00,,,0.12,meteohub,2013-11-01 19:32:00,
2013-11-01 15:34:00,62.1,60.3,29.62,WSW,256,8.0,10.0,94,0.00,,,0.12,meteohub,2013-11-01 19:34:00,
2013-11-01 15:35:00,62.1,60.3,29.62,SW,219,1.0,10.0,94,0.00,,,0.12,meteohub,2013-11-01 19:35:00,
2013-11-01 15:37:00,62.2,60.4,29.61,SW,223,5.0,10.0,94,0.00,,,0.12,meteohub,2013-11-01 19:37:00,
2013-11-01 15:38:00,62.2,60.4,29.61,SSW,193,4.0,10.0,94,0.00,,,0.12,meteohub,2013-11-01 19:38:00,
2013-11-01 15:39:00,62.2,60.4,29.61,WSW,244,3.0,10.0,94,0.00,,,0.12,meteohub,2013-11-01 19:39:00,
2013-11-01 15:41:00,62.2,60.4,29.61,SW,233,3.0,11.0,94,0.00,,,0.12,meteohub,2013-11-01 19:41:00,
2013-11-01 15:42:00,62.2,60.4,29.61,SW,234,3.0,11.0,94,0.00,,,0.12,meteohub,2013-11-01 19:42:00,
2013-11-01 15:43:00,62.2,60.4,29.60,West,261,6.0,11.0,94,0.00,,,0.12,meteohub,2013-11-01 19:43:00,
2013-11-01 15:45:00,62.2,60.4,29.60,SW,222,3.0,11.0,94,0.00,,,0.12,meteohub,2013-11-01 19:45:00,
2013-11-01 15:46:00,62.2,60.4,29.60,SW,219,3.0,11.0,94,0.00,,,0.12,meteohub,2013-11-01 19:46:00,
2013-11-01 15:47:00,62.2,60.4,29.61,WSW,241,2.0,11.0,94,0.00,,,0.12,meteohub,2013-11-01 19:47:00,
2013-11-01 15:48:00,62.2,60.4,29.61,SW,234,7.0,11.0,94,0.00,,,0.12,meteohub,2013-11-01 19:48:00,
2013-11-01 15:50:00,62.2,60.4,29.60,SSW,204,7.0,11.0,94,0.00,,,0.12,meteohub,2013-11-01 19:50:00,
2013-11-01 15:52:00,62.2,60.4,29.60,SSW,209,3.0,11.0,94,0.00,,,0.12,meteohub,2013-11-01 19:52:00,
2013-11-01 15:53:00,62.2,60.4,29.60,SW,219,5.0,11.0,94,0.00,,,0.12,meteohub,2013-11-01 19:53:00,
2013-11-01 15:54:00,62.2,60.4,29.61,SW,229,3.0,11.0,94,0.00,,,0.12,meteohub,2013-11-01 19:54:00,
2013-11-01 15:56:00,62.4,60.6,29.62,SSW,213,2.0,8.0,94,0.00,,,0.12,meteohub,2013-11-01 19:56:00,
2013-11-01 15:57:00,62.4,60.6,29.62,SW,234,3.0,8.0,94,0.00,,,0.12,meteohub,2013-11-01 19:57:00,
2013-11-01 15:59:00,62.4,60.6,29.61,SW,217,5.0,8.0,94,0.00,,,0.12,meteohub,2013-11-01 19:59:00,
2013-11-01 16:00:00,62.4,60.6,29.61,SSW,211,3.0,8.0,94,0.00,,,0.12,meteohub,2013-11-01 20:00:00,
2013-11-01 16:02:00,62.6,60.8,29.60,SW,222,2.0,8.0,94,0.00,,,0.12,meteohub,2013-11-01 20:02:00,
2013-11-01 16:04:00,62.8,61.0,29.60,SSW,202,5.0,8.0,94,0.00,,,0.12,meteohub,2013-11-01 20:04:00,
2013-11-01 16:07:00,62.8,61.0,29.59,WSW,240,5.0,8.0,94,0.00,,,0.12,meteohub,2013-11-01 20:07:00,
2013-11-01 16:08:00,62.8,61.0,29.59,SW,220,3.0,8.0,94,0.00,,,0.12,meteohub,2013-11-01 20:08:00,
2013-11-01 16:09:00,62.8,61.0,29.59,SSW,205,3.0,8.0,94,0.00,,,0.12,meteohub,2013-11-01 20:09:00,
2013-11-01 16:13:00,62.8,61.0,29.61,SW,229,2.0,8.0,94,0.00,,,0.12,meteohub,2013-11-01 20:13:00,
2013-11-01 16:14:00,63.0,61.2,29.61,SSW,195,7.0,8.0,94,0.00,,,0.12,meteohub,2013-11-01 20:14:00,
2013-11-01 16:15:00,63.0,61.2,29.62,WSW,240,3.0,8.0,94,0.00,,,0.12,meteohub,2013-11-01 20:15:00,
2013-11-01 16:18:00,63.0,61.2,29.63,SSW,198,6.0,8.0,94,0.00,,,0.12,meteohub,2013-11-01 20:18:00,
2013-11-01 16:19:00,62.4,60.4,29.63,SSW,194,4.0,8.0,93,0.00,,,0.12,meteohub,2013-11-01 20:19:00,
2013-11-01 16:20:00,62.2,60.3,29.63,SSW,213,6.0,8.0,93,0.00,,,0.12,meteohub,2013-11-01 20:20:00,
2013-11-01 16:23:00,61.5,59.5,29.63,SSW,201,4.0,8.0,93,0.00,,,0.12,meteohub,2013-11-01 20:23:00,
2013-11-01 16:24:00,61.5,59.5,29.63,South,175,6.0,8.0,93,0.00,,,0.12,meteohub,2013-11-01 20:24:00,
2013-11-01 16:25:00,61.5,59.5,29.63,SSW,202,9.0,9.0,93,0.00,,,0.12,meteohub,2013-11-01 20:25:00,
2013-11-01 16:26:00,61.3,59.4,29.63,SW,219,7.0,10.0,93,0.00,,,0.12,meteohub,2013-11-01 20:26:00,
2013-11-01 16:28:00,61.3,59.5,29.63,SSW,213,10.0,10.0,94,0.00,,,0.12,meteohub,2013-11-01 20:28:00,
2013-11-01 16:30:00,61.3,59.5,29.63,SSW,211,7.0,10.0,94,0.00,,,0.12,meteohub,2013-11-01 20:30:00,
2013-11-01 16:31:00,61.3,59.5,29.63,SW,214,9.0,10.0,94,0.00,,,0.12,meteohub,2013-11-01 20:31:00,
2013-11-01 16:32:00,61.3,59.5,29.63,SW,233,6.0,10.0,94,0.00,,,0.12,meteohub,2013-11-01 20:32:00,
2013-11-01 16:33:00,61.3,59.5,29.63,SSW,199,7.0,10.0,94,0.00,,,0.12,meteohub,2013-11-01 20:33:00,
2013-11-01 16:35:00,61.3,59.5,29.64,SW,224,7.0,11.0,94,0.00,,,0.12,meteohub,2013-11-01 20:35:00,
2013-11-01 16:36:00,61.3,59.5,29.64,SSW,205,5.0,11.0,94,0.00,,,0.12,meteohub,2013-11-01 20:36:00,
2013-11-01 16:37:00,61.3,59.5,29.63,SSW,213,2.0,11.0,94,0.00,,,0.12,meteohub,2013-11-01 20:37:00,
2013-11-01 16:38:00,61.2,59.4,29.63,SSW,198,7.0,11.0,94,0.00,,,0.12,meteohub,2013-11-01 20:38:00,
2013-11-01 16:40:00,61.2,59.4,29.62,SW,231,5.0,11.0,94,0.00,,,0.12,meteohub,2013-11-01 20:40:00,
2013-11-01 16:41:00,61.2,59.4,29.62,WSW,238,8.0,11.0,94,0.00,,,0.12,meteohub,2013-11-01 20:41:00,
2013-11-01 16:42:00,61.2,59.4,29.62,SW,230,4.0,11.0,94,0.00,,,0.12,meteohub,2013-11-01 20:42:00,
2013-11-01 16:43:00,61.0,59.2,29.62,SW,218,3.0,11.0,94,0.00,,,0.12,meteohub,2013-11-01 20:43:00,
2013-11-01 16:45:00,61.0,59.2,29.62,SSW,198,3.0,11.0,94,0.00,,,0.12,meteohub,2013-11-01 20:45:00,
2013-11-01 16:46:00,61.0,59.2,29.62,SW,217,4.0,11.0,94,0.00,,,0.12,meteohub,2013-11-01 20:46:00,
2013-11-01 16:47:00,61.0,59.2,29.62,SW,232,4.0,11.0,94,0.00,,,0.12,meteohub,2013-11-01 20:47:00,
2013-11-01 16:49:00,61.0,59.2,29.62,SW,219,3.0,11.0,94,0.00,,,0.12,meteohub,2013-11-01 20:49:00,
2013-11-01 16:50:00,61.0,59.2,29.62,SW,232,5.0,10.0,94,0.00,,,0.12,meteohub,2013-11-01 20:50:00,
2013-11-01 16:51:00,61.0,59.5,29.62,SSW,210,3.0,10.0,95,0.00,,,0.12,meteohub,2013-11-01 20:51:00,
2013-11-01 16:52:00,61.0,59.5,29.62,SSW,202,3.0,10.0,95,0.00,,,0.12,meteohub,2013-11-01 20:52:00,
2013-11-01 16:54:00,61.0,59.5,29.62,SSW,211,6.0,10.0,95,0.00,,,0.12,meteohub,2013-11-01 20:54:00,
2013-11-01 16:55:00,61.0,59.5,29.62,SW,223,3.0,9.0,95,0.00,,,0.12,meteohub,2013-11-01 20:55:00,
2013-11-01 16:56:00,61.0,59.5,29.63,SSW,209,7.0,9.0,95,0.00,,,0.12,meteohub,2013-11-01 20:56:00,
2013-11-01 16:57:00,61.0,59.5,29.63,SSW,213,3.0,9.0,95,0.00,,,0.12,meteohub,2013-11-01 20:57:00,
2013-11-01 16:58:00,61.0,59.5,29.63,WSW,246,5.0,9.0,95,0.00,,,0.12,meteohub,2013-11-01 20:58:00,
2013-11-01 16:59:00,61.2,59.7,29.63,SSW,205,6.0,9.0,95,0.00,,,0.12,meteohub,2013-11-01 20:59:00,
2013-11-01 17:01:00,61.2,59.7,29.63,SSW,205,4.0,9.0,95,0.00,,,0.12,meteohub,2013-11-01 21:01:00,
2013-11-01 17:03:00,61.2,59.7,29.63,SW,227,3.0,9.0,95,0.00,,,0.12,meteohub,2013-11-01 21:03:00,
2013-11-01 17:04:00,61.3,59.9,29.63,SW,232,6.0,9.0,95,0.00,,,0.12,meteohub,2013-11-01 21:04:00,
2013-11-01 17:05:00,61.3,59.9,29.63,SW,219,5.0,9.0,95,0.00,,,0.12,meteohub,2013-11-01 21:05:00,
2013-11-01 17:07:00,61.5,60.1,29.63,SW,217,1.0,9.0,95,0.00,,,0.12,meteohub,2013-11-01 21:07:00,
2013-11-01 17:08:00,61.5,60.1,29.63,SW,215,3.0,9.0,95,0.00,,,0.12,meteohub,2013-11-01 21:08:00,
2013-11-01 17:09:00,61.5,60.1,29.63,WSW,240,3.0,9.0,95,0.00,,,0.12,meteohub,2013-11-01 21:09:00,
2013-11-01 17:10:00,61.7,60.3,29.63,SW,229,2.0,9.0,95,0.00,,,0.12,meteohub,2013-11-01 21:10:00,
2013-11-01 17:11:00,61.7,60.3,29.63,SW,224,3.0,9.0,95,0.00,,,0.12,meteohub,2013-11-01 21:11:00,
2013-11-01 17:12:00,61.7,60.3,29.63,SW,223,3.0,9.0,95,0.00,,,0.12,meteohub,2013-11-01 21:12:00,
2013-11-01 17:14:00,61.9,60.4,29.63,SSW,208,1.0,9.0,95,0.00,,,0.12,meteohub,2013-11-01 21:14:00,
2013-11-01 17:16:00,61.9,60.4,29.63,SSW,212,0.0,8.0,95,0.00,,,0.12,meteohub,2013-11-01 21:16:00,
2013-11-01 17:17:00,62.1,60.6,29.62,West,259,4.0,8.0,95,0.00,,,0.12,meteohub,2013-11-01 21:17:00,
2013-11-01 17:18:00,62.1,60.6,29.62,SSW,210,1.0,8.0,95,0.00,,,0.12,meteohub,2013-11-01 21:18:00,
2013-11-01 17:20:00,62.1,60.6,29.62,SSW,209,0.0,8.0,95,0.00,,,0.12,meteohub,2013-11-01 21:20:00,
2013-11-01 17:21:00,62.1,60.6,29.62,SSW,208,1.0,6.0,95,0.00,,,0.12,meteohub,2013-11-01 21:21:00,
2013-11-01 17:22:00,61.9,60.4,29.62,South,169,2.0,6.0,95,0.00,,,0.12,meteohub,2013-11-01 21:22:00,
2013-11-01 17:23:00,61.9,60.4,29.62,SSW,202,2.0,6.0,95,0.00,,,0.12,meteohub,2013-11-01 21:23:00,
2013-11-01 17:25:00,61.5,59.7,29.62,SSW,200,4.0,6.0,94,0.00,,,0.12,meteohub,2013-11-01 21:25:00,
2013-11-01 17:26:00,61.5,59.7,29.62,SW,223,4.0,6.0,94,0.00,,,0.12,meteohub,2013-11-01 21:26:00,
2013-11-01 17:28:00,61.3,59.5,29.63,South,191,5.0,6.0,94,0.00,,,0.12,meteohub,2013-11-01 21:28:00,
2013-11-01 17:29:00,61.2,59.4,29.63,WSW,242,1.0,6.0,94,0.00,,,0.12,meteohub,2013-11-01 21:29:00,
2013-11-01 17:30:00,61.2,59.4,29.64,WSW,239,2.0,8.0,94,0.00,,,0.12,meteohub,2013-11-01 21:30:00,
2013-11-01 17:31:00,61.2,59.7,29.64,SW,226,3.0,8.0,95,0.00,,,0.12,meteohub,2013-11-01 21:31:00,
2013-11-01 17:34:00,61.3,59.9,29.64,South,173,3.0,8.0,95,0.00,,,0.12,meteohub,2013-11-01 21:34:00,
2013-11-01 17:36:00,61.5,60.1,29.64,SSW,194,3.0,8.0,95,0.00,,,0.12,meteohub,2013-11-01 21:36:00,
2013-11-01 17:39:00,61.5,60.1,29.64,WSW,242,3.0,8.0,95,0.00,,,0.12,meteohub,2013-11-01 21:39:00,
2013-11-01 17:41:00,61.7,60.3,29.64,SW,227,3.0,8.0,95,0.00,,,0.12,meteohub,2013-11-01 21:41:00,
2013-11-01 17:42:00,61.7,60.3,29.64,SW,221,2.0,8.0,95,0.00,,,0.12,meteohub,2013-11-01 21:42:00,
2013-11-01 17:44:00,61.9,60.4,29.63,SSW,195,2.0,8.0,95,0.00,,,0.12,meteohub,2013-11-01 21:44:00,
2013-11-01 17:45:00,61.9,60.4,29.63,SW,215,4.0,8.0,95,0.00,,,0.12,meteohub,2013-11-01 21:45:00,
2013-11-01 17:46:00,61.9,60.4,29.63,SSW,194,4.0,7.0,95,0.00,,,0.12,meteohub,2013-11-01 21:46:00,
2013-11-01 17:47:00,61.7,59.9,29.63,SSW,207,4.0,7.0,94,0.00,,,0.12,meteohub,2013-11-01 21:47:00,
2013-11-01 17:49:00,61.3,59.5,29.64,SW,217,4.0,7.0,94,0.00,,,0.12,meteohub,2013-11-01 21:49:00,
2013-11-01 17:50:00,61.3,59.5,29.64,SW,216,3.0,7.0,94,0.00,,,0.12,meteohub,2013-11-01 21:50:00,
2013-11-01 17:51:00,61.2,59.4,29.64,SW,221,3.0,9.0,94,0.00,,,0.12,meteohub,2013-11-01 21:51:00,
2013-11-01 17:52:00,61.2,59.7,29.64,SSW,204,3.0,9.0,95,0.00,,,0.12,meteohub,2013-11-01 21:52:00,
2013-11-01 17:54:00,61.2,59.7,29.64,SSW,207,4.0,9.0,95,0.00,,,0.12,meteohub,2013-11-01 21:54:00,
2013-11-01 17:55:00,61.2,59.7,29.64,South,173,2.0,10.0,95,0.00,,,0.12,meteohub,2013-11-01 21:55:00,
2013-11-01 17:56:00,61.2,59.7,29.63,South,176,4.0,10.0,95,0.00,,,0.12,meteohub,2013-11-01 21:56:00,
2013-11-01 17:57:00,61.3,59.9,29.63,South,178,3.0,10.0,95,0.00,,,0.12,meteohub,2013-11-01 21:57:00,
2013-11-01 18:00:00,61.2,59.7,29.64,SW,231,3.0,10.0,95,0.00,,,0.12,meteohub,2013-11-01 22:00:00,
2013-11-01 18:02:00,61.0,59.5,29.64,South,186,4.0,10.0,95,0.00,,,0.12,meteohub,2013-11-01 22:02:00,
2013-11-01 18:03:00,61.0,59.5,29.64,SW,227,3.0,10.0,95,0.00,,,0.12,meteohub,2013-11-01 22:03:00,
2013-11-01 18:05:00,60.8,59.4,29.64,SSW,194,6.0,10.0,95,0.00,,,0.12,meteohub,2013-11-01 22:05:00,
2013-11-01 18:07:00,60.6,59.2,29.65,SW,221,3.0,10.0,95,0.00,,,0.12,meteohub,2013-11-01 22:07:00,
2013-11-01 18:08:00,60.6,59.2,29.65,SSW,199,5.0,10.0,95,0.00,,,0.12,meteohub,2013-11-01 22:08:00,
2013-11-01 18:09:00,60.6,59.2,29.65,SW,221,3.0,10.0,95,0.00,,,0.12,meteohub,2013-11-01 22:09:00,
2013-11-01 18:10:00,60.6,59.2,29.64,SW,216,3.0,9.0,95,0.00,,,0.12,meteohub,2013-11-01 22:10:00,
2013-11-01 18:12:00,60.6,59.2,29.64,SW,217,5.0,9.0,95,0.00,,,0.12,meteohub,2013-11-01 22:12:00,
2013-11-01 18:13:00,60.6,59.2,29.64,SSE,165,5.0,9.0,95,0.00,,,0.12,meteohub,2013-11-01 22:13:00,
2013-11-01 18:14:00,60.6,59.2,29.65,SSW,200,4.0,9.0,95,0.00,,,0.12,meteohub,2013-11-01 22:14:00,
2013-11-01 18:16:00,60.8,59.4,29.65,SSW,192,3.0,9.0,95,0.00,,,0.12,meteohub,2013-11-01 22:16:00,
2013-11-01 18:17:00,61.0,59.5,29.65,SW,235,5.0,9.0,95,0.00,,,0.12,meteohub,2013-11-01 22:17:00,
2013-11-01 18:18:00,61.0,59.5,29.65,SW,219,5.0,9.0,95,0.00,,,0.12,meteohub,2013-11-01 22:18:00,
2013-11-01 18:19:00,61.0,59.5,29.65,WSW,241,2.0,9.0,95,0.00,,,0.12,meteohub,2013-11-01 22:19:00,
2013-11-01 18:21:00,61.0,59.5,29.65,WSW,251,5.0,8.0,95,0.00,,,0.12,meteohub,2013-11-01 22:21:00,
2013-11-01 18:22:00,61.2,59.7,29.64,SW,224,2.0,8.0,95,0.00,,,0.12,meteohub,2013-11-01 22:22:00,
2013-11-01 18:23:00,61.2,59.7,29.64,WSW,245,5.0,8.0,95,0.00,,,0.12,meteohub,2013-11-01 22:23:00,
2013-11-01 18:24:00,61.2,59.7,29.64,SW,215,3.0,8.0,95,0.00,,,0.12,meteohub,2013-11-01 22:24:00,
2013-11-01 18:26:00,61.3,59.9,29.63,WSW,240,1.0,8.0,95,0.00,,,0.12,meteohub,2013-11-01 22:26:00,
2013-11-01 18:27:00,61.3,59.9,29.63,SSW,204,1.0,8.0,95,0.00,,,0.12,meteohub,2013-11-01 22:27:00,
2013-11-01 18:28:00,61.3,59.9,29.63,SSW,207,1.0,8.0,95,0.00,,,0.12,meteohub,2013-11-01 22:28:00,
2013-11-01 18:30:00,61.3,59.9,29.63,SSW,198,0.0,7.0,95,0.00,,,0.12,meteohub,2013-11-01 22:30:00,
2013-11-01 18:31:00,61.3,59.9,29.63,SSW,211,2.0,7.0,95,0.00,,,0.12,meteohub,2013-11-01 22:31:00,
2013-11-01 18:32:00,61.3,59.9,29.63,SSW,211,1.0,7.0,95,0.00,,,0.12,meteohub,2013-11-01 22:32:00,
2013-11-01 18:33:00,61.3,59.9,29.63,SSW,211,0.0,7.0,95,0.00,,,0.12,meteohub,2013-11-01 22:33:00,
2013-11-01 18:34:00,61.3,59.9,29.63,SSW,193,2.0,7.0,95,0.00,,,0.12,meteohub,2013-11-01 22:34:00,
2013-11-01 18:35:00,61.3,59.9,29.63,SSW,192,2.0,6.0,95,0.00,,,0.12,meteohub,2013-11-01 22:35:00,
2013-11-01 18:37:00,61.2,59.7,29.63,WSW,238,4.0,6.0,95,0.00,,,0.12,meteohub,2013-11-01 22:37:00,
2013-11-01 18:38:00,61.0,59.5,29.63,SW,219,6.0,6.0,95,0.00,,,0.12,meteohub,2013-11-01 22:38:00,
2013-11-01 18:39:00,61.0,59.5,29.64,SSW,199,6.0,6.0,95,0.00,,,0.12,meteohub,2013-11-01 22:39:00,
2013-11-01 18:41:00,60.8,59.4,29.64,SSW,206,3.0,8.0,95,0.00,,,0.12,meteohub,2013-11-01 22:41:00,
2013-11-01 18:42:00,60.8,59.4,29.64,SW,223,3.0,8.0,95,0.00,,,0.12,meteohub,2013-11-01 22:42:00,
2013-11-01 18:44:00,60.6,59.2,29.64,SSW,211,4.0,8.0,95,0.00,,,0.12,meteohub,2013-11-01 22:44:00,
2013-11-01 18:45:00,60.6,59.2,29.64,SSW,199,3.0,8.0,95,0.00,,,0.12,meteohub,2013-11-01 22:45:00,
2013-11-01 18:46:00,60.6,59.2,29.64,SSW,205,4.0,8.0,95,0.00,,,0.12,meteohub,2013-11-01 22:46:00,
2013-11-01 18:48:00,60.4,59.0,29.64,SW,225,3.0,8.0,95,0.00,,,0.12,meteohub,2013-11-01 22:48:00,
2013-11-01 18:49:00,60.4,59.0,29.64,SW,216,3.0,8.0,95,0.00,,,0.12,meteohub,2013-11-01 22:49:00,
2013-11-01 18:50:00,60.4,59.0,29.64,SSW,211,4.0,8.0,95,0.00,,,0.12,meteohub,2013-11-01 22:50:00,
2013-11-01 18:51:00,60.4,59.0,29.64,SSW,202,4.0,8.0,95,0.00,,,0.12,meteohub,2013-11-01 22:51:00,
2013-11-01 18:53:00,60.6,59.2,29.65,SW,221,3.0,8.0,95,0.00,,,0.12,meteohub,2013-11-01 22:53:00,
2013-11-01 18:54:00,60.6,59.5,29.64,SW,227,2.0,8.0,96,0.00,,,0.12,meteohub,2013-11-01 22:54:00,
2013-11-01 18:55:00,60.6,59.2,29.65,SW,227,0.0,9.0,95,0.00,,,0.12,meteohub,2013-11-01 22:55:00,
2013-11-01 18:56:00,60.6,59.2,29.64,SSW,211,3.0,9.0,95,0.00,,,0.12,meteohub,2013-11-01 22:56:00,
2013-11-01 18:58:00,61.0,59.9,29.64,SW,225,2.0,9.0,96,0.00,,,0.12,meteohub,2013-11-01 22:58:00,
2013-11-01 19:00:00,61.0,59.5,29.64,South,185,1.0,9.0,95,0.00,,,0.12,meteohub,2013-11-01 23:00:00,
2013-11-01 19:01:00,61.0,59.5,29.64,SSW,202,3.0,9.0,95,0.00,,,0.12,meteohub,2013-11-01 23:01:00,
2013-11-01 19:02:00,61.0,59.5,29.64,SSW,211,1.0,9.0,95,0.00,,,0.12,meteohub,2013-11-01 23:02:00,
2013-11-01 19:03:00,60.8,59.4,29.64,SSW,198,5.0,9.0,95,0.00,,,0.12,meteohub,2013-11-01 23:03:00,
2013-11-01 19:05:00,60.6,59.2,29.65,South,191,4.0,9.0,95,0.00,,,0.12,meteohub,2013-11-01 23:05:00,
2013-11-01 19:06:00,60.6,59.2,29.65,SSW,199,2.0,9.0,95,0.00,,,0.12,meteohub,2013-11-01 23:06:00,
2013-11-01 19:09:00,60.6,59.2,29.65,SSW,193,3.0,9.0,95,0.00,,,0.12,meteohub,2013-11-01 23:09:00,
2013-11-01 19:10:00,60.4,59.0,29.65,SSW,205,9.0,9.0,95,0.00,,,0.12,meteohub,2013-11-01 23:10:00,
2013-11-01 19:11:00,60.4,59.0,29.65,SSW,211,3.0,6.0,95,0.00,,,0.12,meteohub,2013-11-01 23:11:00,
2013-11-01 19:12:00,60.4,59.0,29.65,SSW,202,5.0,6.0,95,0.00,,,0.12,meteohub,2013-11-01 23:12:00,
2013-11-01 19:14:00,60.4,59.4,29.66,WSW,241,4.0,6.0,96,0.00,,,0.12,meteohub,2013-11-01 23:14:00,
2013-11-01 19:16:00,60.4,59.4,29.65,SSW,200,3.0,9.0,96,0.00,,,0.12,meteohub,2013-11-01 23:16:00,
2013-11-01 19:17:00,60.6,59.5,29.66,SSW,205,3.0,9.0,96,0.00,,,0.12,meteohub,2013-11-01 23:17:00,
2013-11-01 19:18:00,60.6,59.5,29.66,SSW,208,3.0,9.0,96,0.00,,,0.12,meteohub,2013-11-01 23:18:00,
2013-11-01 19:19:00,60.6,59.5,29.66,SSW,196,3.0,9.0,96,0.00,,,0.12,meteohub,2013-11-01 23:19:00,
2013-11-01 19:21:00,60.6,59.5,29.67,WSW,248,4.0,9.0,96,0.00,,,0.12,meteohub,2013-11-01 23:21:00,
2013-11-01 19:22:00,60.6,59.5,29.67,SW,223,2.0,9.0,96,0.00,,,0.12,meteohub,2013-11-01 23:22:00,
2013-11-01 19:23:00,60.8,59.7,29.67,SSW,211,3.0,9.0,96,0.00,,,0.12,meteohub,2013-11-01 23:23:00,
2013-11-01 19:24:00,61.0,59.9,29.66,SW,230,4.0,9.0,96,0.00,,,0.12,meteohub,2013-11-01 23:24:00,
2013-11-01 19:27:00,61.0,59.9,29.66,SSW,211,4.0,9.0,96,0.00,,,0.12,meteohub,2013-11-01 23:27:00,
2013-11-01 19:28:00,60.6,59.2,29.66,SW,221,7.0,9.0,95,0.00,,,0.12,meteohub,2013-11-01 23:28:00,
2013-11-01 19:29:00,60.6,59.2,29.66,SSW,204,4.0,9.0,95,0.00,,,0.12,meteohub,2013-11-01 23:29:00,
2013-11-01 19:30:00,60.6,59.2,29.65,SSW,210,4.0,10.0,95,0.00,,,0.12,meteohub,2013-11-01 23:30:00,
2013-11-01 19:32:00,60.6,59.2,29.65,SW,222,3.0,10.0,95,0.00,,,0.12,meteohub,2013-11-01 23:32:00,
2013-11-01 19:33:00,60.4,59.0,29.65,SSW,211,1.0,10.0,95,0.00,,,0.12,meteohub,2013-11-01 23:33:00,
2013-11-01 19:34:00,60.4,59.0,29.65,SSW,211,2.0,10.0,95,0.00,,,0.12,meteohub,2013-11-01 23:34:00,
2013-11-01 19:35:00,60.4,59.4,29.65,SW,235,3.0,10.0,96,0.00,,,0.12,meteohub,2013-11-01 23:35:00,
2013-11-01 19:37:00,60.4,59.4,29.65,SW,227,2.0,10.0,96,0.00,,,0.12,meteohub,2013-11-01 23:37:00,
2013-11-01 19:38:00,60.4,59.4,29.65,South,184,5.0,10.0,96,0.00,,,0.12,meteohub,2013-11-01 23:38:00,
2013-11-01 19:39:00,60.4,59.4,29.65,SW,217,4.0,10.0,96,0.00,,,0.12,meteohub,2013-11-01 23:39:00,
2013-11-01 19:40:00,60.4,59.4,29.65,SSW,207,6.0,10.0,96,0.00,,,0.12,meteohub,2013-11-01 23:40:00,
2013-11-01 19:42:00,60.4,59.4,29.65,SW,223,4.0,10.0,96,0.00,,,0.12,meteohub,2013-11-01 23:42:00,
2013-11-01 19:43:00,60.4,59.4,29.65,SW,232,2.0,10.0,96,0.00,,,0.12,meteohub,2013-11-01 23:43:00,
2013-11-01 19:44:00,60.4,59.4,29.65,SW,222,3.0,10.0,96,0.00,,,0.12,meteohub,2013-11-01 23:44:00,
2013-11-01 19:45:00,60.4,59.4,29.65,SW,219,6.0,10.0,96,0.00,,,0.12,meteohub,2013-11-01 23:45:00,
2013-11-01 19:46:00,60.6,59.5,29.65,SW,219,1.0,7.0,96,0.00,,,0.12,meteohub,2013-11-01 23:46:00,
2013-11-01 19:48:00,61.0,59.9,29.65,SW,225,1.0,7.0,96,0.00,,,0.12,meteohub,2013-11-01 23:48:00,
2013-11-01 19:49:00,61.0,59.9,29.65,SW,223,2.0,7.0,96,0.00,,,0.12,meteohub,2013-11-01 23:49:00,
2013-11-01 19:50:00,61.2,60.1,29.66,SW,232,2.0,7.0,96,0.00,,,0.12,meteohub,2013-11-01 23:50:00,
2013-11-01 19:52:00,61.3,60.3,29.66,SW,217,0.0,7.0,96,0.00,,,0.12,meteohub,2013-11-01 23:52:00,
2013-11-01 19:53:00,61.3,60.3,29.66,SW,226,3.0,7.0,96,0.00,,,0.12,meteohub,2013-11-01 23:53:00,
2013-11-01 19:55:00,61.5,60.4,29.66,SW,232,3.0,7.0,96,0.00,,,0.12,meteohub,2013-11-01 23:55:00,
2013-11-01 19:57:00,61.9,61.0,29.66,SW,219,4.0,7.0,97,0.00,,,0.12,meteohub,2013-11-01 23:57:00,
2013-11-01 19:59:00,62.2,61.3,29.66,SW,226,2.0,7.0,97,0.00,,,0.12,meteohub,2013-11-01 23:59:00,
2013-11-01 20:00:00,62.4,61.3,29.66,WSW,241,3.0,8.0,96,0.00,,,0.12,meteohub,2013-11-02 00:00:00,
2013-11-01 20:02:00,62.4,61.3,29.66,SW,233,0.0,8.0,96,0.00,,,0.12,meteohub,2013-11-02 00:02:00,
2013-11-01 20:04:00,62.4,61.3,29.66,SW,217,5.0,8.0,96,0.00,,,0.12,meteohub,2013-11-02 00:04:00,
2013-11-01 20:05:00,62.1,60.6,29.66,SW,219,3.0,8.0,95,0.00,,,0.12,meteohub,2013-11-02 00:05:00,
2013-11-01 20:06:00,61.9,60.4,29.65,SW,219,2.0,8.0,95,0.00,,,0.12,meteohub,2013-11-02 00:06:00,
2013-11-01 20:07:00,61.5,60.1,29.65,SW,220,3.0,8.0,95,0.00,,,0.12,meteohub,2013-11-02 00:07:00,
2013-11-01 20:08:00,61.5,60.1,29.66,WSW,248,1.0,8.0,95,0.00,,,0.12,meteohub,2013-11-02 00:08:00,
2013-11-01 20:09:00,61.3,59.9,29.66,SSW,193,4.0,8.0,95,0.00,,,0.12,meteohub,2013-11-02 00:09:00,
2013-11-01 20:10:00,61.3,59.9,29.67,SW,219,3.0,8.0,95,0.00,,,0.12,meteohub,2013-11-02 00:10:00,
2013-11-01 20:12:00,61.2,60.1,29.67,SW,229,1.0,8.0,96,0.00,,,0.12,meteohub,2013-11-02 00:12:00,
2013-11-01 20:14:00,61.2,60.1,29.66,South,190,2.0,8.0,96,0.00,,,0.12,meteohub,2013-11-02 00:14:00,
2013-11-01 20:16:00,61.2,60.1,29.65,SSW,211,2.0,7.0,96,0.00,,,0.12,meteohub,2013-11-02 00:16:00,
2013-11-01 20:18:00,61.2,60.1,29.65,SW,220,0.0,7.0,96,0.00,,,0.12,meteohub,2013-11-02 00:18:00,
2013-11-01 20:19:00,61.3,60.3,29.65,SW,226,2.0,7.0,96,0.00,,,0.12,meteohub,2013-11-02 00:19:00,
2013-11-01 20:21:00,61.3,60.3,29.66,WSW,257,3.0,7.0,96,0.00,,,0.12,meteohub,2013-11-02 00:21:00,
2013-11-01 20:23:00,61.5,60.4,29.67,WSW,246,4.0,7.0,96,0.00,,,0.12,meteohub,2013-11-02 00:23:00,
2013-11-01 20:24:00,61.5,60.4,29.67,WSW,238,3.0,7.0,96,0.00,,,0.12,meteohub,2013-11-02 00:24:00,
2013-11-01 20:25:00,61.7,60.6,29.67,West,259,6.0,6.0,96,0.00,,,0.12,meteohub,2013-11-02 00:25:00,
2013-11-01 20:27:00,61.5,60.4,29.67,SW,236,2.0,6.0,96,0.00,,,0.12,meteohub,2013-11-02 00:27:00,
2013-11-01 20:28:00,61.5,60.4,29.67,WSW,245,4.0,6.0,96,0.00,,,0.12,meteohub,2013-11-02 00:28:00,
2013-11-01 20:29:00,61.5,60.4,29.67,WSW,254,2.0,6.0,96,0.00,,,0.12,meteohub,2013-11-02 00:29:00,
2013-11-01 20:30:00,61.5,60.4,29.67,WSW,256,2.0,6.0,96,0.00,,,0.12,meteohub,2013-11-02 00:30:00,
2013-11-01 20:32:00,61.5,60.4,29.66,WSW,246,2.0,7.0,96,0.00,,,0.12,meteohub,2013-11-02 00:32:00,
2013-11-01 20:35:00,61.5,60.4,29.66,WSW,252,3.0,7.0,96,0.00,,,0.12,meteohub,2013-11-02 00:35:00,
2013-11-01 20:37:00,61.3,60.3,29.65,WSW,243,2.0,7.0,96,0.00,,,0.12,meteohub,2013-11-02 00:37:00,
2013-11-01 20:40:00,61.3,60.3,29.65,SW,236,3.0,5.0,96,0.00,,,0.12,meteohub,2013-11-02 00:40:00,
2013-11-01 20:41:00,61.3,60.3,29.65,WSW,237,2.0,5.0,96,0.00,,,0.12,meteohub,2013-11-02 00:41:00,
2013-11-01 20:42:00,61.3,60.3,29.65,WSW,254,2.0,5.0,96,0.00,,,0.12,meteohub,2013-11-02 00:42:00,
2013-11-01 20:46:00,61.3,60.3,29.65,SW,231,1.0,4.0,96,0.00,,,0.12,meteohub,2013-11-02 00:46:00,
2013-11-01 20:47:00,61.3,60.3,29.65,SW,232,1.0,4.0,96,0.00,,,0.12,meteohub,2013-11-02 00:47:00,
2013-11-01 20:48:00,61.2,59.7,29.65,SW,228,2.0,4.0,95,0.00,,,0.12,meteohub,2013-11-02 00:48:00,
2013-11-01 20:52:00,61.2,60.1,29.65,WSW,242,2.0,5.0,96,0.00,,,0.12,meteohub,2013-11-02 00:52:00,
2013-11-01 20:53:00,61.0,59.9,29.65,WSW,258,3.0,5.0,96,0.00,,,0.12,meteohub,2013-11-02 00:53:00,
2013-11-01 20:54:00,61.0,59.5,29.65,WSW,256,2.0,5.0,95,0.00,,,0.12,meteohub,2013-11-02 00:54:00,
2013-11-01 20:57:00,60.8,59.4,29.65,WSW,255,1.0,7.0,95,0.00,,,0.12,meteohub,2013-11-02 00:57:00,
2013-11-01 20:58:00,60.8,59.7,29.65,WSW,255,0.0,7.0,96,0.00,,,0.12,meteohub,2013-11-02 00:58:00,
2013-11-01 21:00:00,60.6,59.2,29.65,WSW,255,3.0,7.0,95,0.00,,,0.12,meteohub,2013-11-02 01:00:00,
2013-11-01 21:02:00,60.6,59.2,29.65,WSW,255,1.0,7.0,95,0.00,,,0.12,meteohub,2013-11-02 01:02:00,
2013-11-01 21:03:00,60.6,59.5,29.66,SW,215,2.0,7.0,96,0.00,,,0.12,meteohub,2013-11-02 01:03:00,
2013-11-01 21:04:00,60.6,59.5,29.66,SSW,201,1.0,7.0,96,0.00,,,0.12,meteohub,2013-11-02 01:04:00,
2013-11-01 21:05:00,60.6,59.5,29.66,SSW,209,2.0,7.0,96,0.00,,,0.12,meteohub,2013-11-02 01:05:00,
2013-11-01 21:07:00,60.4,59.4,29.66,SSW,211,1.0,4.0,96,0.00,,,0.12,meteohub,2013-11-02 01:07:00,
2013-11-01 21:09:00,60.4,59.4,29.65,SSW,211,1.0,4.0,96,0.00,,,0.12,meteohub,2013-11-02 01:09:00,
2013-11-01 21:10:00,60.4,59.4,29.65,SSW,211,0.0,4.0,96,0.00,,,0.12,meteohub,2013-11-02 01:10:00,
2013-11-01 21:13:00,60.3,59.2,29.65,SSW,211,0.0,4.0,96,0.00,,,0.12,meteohub,2013-11-02 01:13:00,
2013-11-01 21:14:00,60.3,59.2,29.65,SSW,211,0.0,4.0,96,0.00,,,0.12,meteohub,2013-11-02 01:14:00,
2013-11-01 21:15:00,60.3,59.2,29.65,SSW,211,0.0,4.0,96,0.00,,,0.12,meteohub,2013-11-02 01:15:00,
2013-11-01 21:18:00,60.3,59.2,29.65,SSW,211,0.0,4.0,96,0.00,,,0.12,meteohub,2013-11-02 01:18:00,
2013-11-01 21:19:00,60.3,59.2,29.66,SSW,211,0.0,4.0,96,0.00,,,0.12,meteohub,2013-11-02 01:19:00,
2013-11-01 21:20:00,60.3,59.2,29.66,SSW,211,0.0,2.0,96,0.00,,,0.12,meteohub,2013-11-02 01:20:00,
2013-11-01 21:22:00,60.3,59.2,29.66,SSW,211,0.0,2.0,96,0.00,,,0.12,meteohub,2013-11-02 01:22:00,
2013-11-01 21:23:00,60.1,59.0,29.66,SSW,211,1.0,2.0,96,0.00,,,0.12,meteohub,2013-11-02 01:23:00,
2013-11-01 21:24:00,60.1,59.0,29.66,SSW,211,1.0,2.0,96,0.00,,,0.12,meteohub,2013-11-02 01:24:00,
2013-11-01 21:25:00,60.1,59.0,29.67,SSW,211,0.0,1.0,96,0.00,,,0.12,meteohub,2013-11-02 01:25:00,
2013-11-01 21:26:00,60.1,59.0,29.67,SSW,211,0.0,1.0,96,0.00,,,0.12,meteohub,2013-11-02 01:26:00,
2013-11-01 21:27:00,60.1,59.0,29.67,SSW,211,1.0,1.0,96,0.00,,,0.12,meteohub,2013-11-02 01:27:00,
2013-11-01 21:29:00,60.1,59.0,29.67,SSW,211,0.0,1.0,96,0.00,,,0.12,meteohub,2013-11-02 01:29:00,
2013-11-01 21:30:00,60.1,59.0,29.67,SSW,211,0.0,1.0,96,0.00,,,0.12,meteohub,2013-11-02 01:30:00,
2013-11-01 21:32:00,60.1,59.0,29.66,SSW,211,0.0,2.0,96,0.00,,,0.12,meteohub,2013-11-02 01:32:00,
2013-11-01 21:33:00,60.1,59.0,29.67,SSW,211,1.0,2.0,96,0.00,,,0.12,meteohub,2013-11-02 01:33:00,
2013-11-01 21:34:00,60.1,59.0,29.67,South,183,4.0,4.0,96,0.00,,,0.12,meteohub,2013-11-02 01:34:00,
2013-11-01 21:35:00,60.1,59.0,29.67,SSW,205,5.0,5.0,96,0.00,,,0.12,meteohub,2013-11-02 01:35:00,
2013-11-01 21:36:00,60.1,59.0,29.67,SW,218,1.0,2.0,96,0.00,,,0.12,meteohub,2013-11-02 01:36:00,
2013-11-01 21:37:00,60.1,59.0,29.68,SW,219,1.0,2.0,96,0.00,,,0.12,meteohub,2013-11-02 01:37:00,
2013-11-01 21:39:00,60.1,59.0,29.67,SW,219,2.0,2.0,96,0.00,,,0.12,meteohub,2013-11-02 01:39:00,
2013-11-01 21:40:00,60.1,59.0,29.68,SW,219,0.0,7.0,96,0.00,,,0.12,meteohub,2013-11-02 01:40:00,
2013-11-01 21:41:00,60.1,59.0,29.68,SW,219,0.0,7.0,96,0.00,,,0.12,meteohub,2013-11-02 01:41:00,
2013-11-01 21:42:00,60.1,59.0,29.68,SW,219,1.0,7.0,96,0.00,,,0.12,meteohub,2013-11-02 01:42:00,
2013-11-01 21:43:00,60.3,59.2,29.68,SSW,213,2.0,7.0,96,0.00,,,0.12,meteohub,2013-11-02 01:43:00,
2013-11-01 21:45:00,60.3,59.2,29.69,SSW,211,3.0,7.0,96,0.00,,,0.12,meteohub,2013-11-02 01:45:00,
2013-11-01 21:46:00,60.3,59.2,29.69,WSW,248,3.0,7.0,96,0.00,,,0.12,meteohub,2013-11-02 01:46:00,
2013-11-01 21:47:00,60.3,59.2,29.69,SW,220,3.0,7.0,96,0.00,,,0.12,meteohub,2013-11-02 01:47:00,
2013-11-01 21:48:00,60.3,59.2,29.69,SSW,205,3.0,7.0,96,0.00,,,0.12,meteohub,2013-11-02 01:48:00,
2013-11-01 21:50:00,60.4,59.4,29.69,SSW,211,3.0,8.0,96,0.00,,,0.12,meteohub,2013-11-02 01:50:00,
2013-11-01 21:51:00,60.4,59.4,29.69,SSW,200,3.0,8.0,96,0.00,,,0.12,meteohub,2013-11-02 01:51:00,
2013-11-01 21:52:00,60.4,59.4,29.69,SSW,207,3.0,8.0,96,0.00,,,0.12,meteohub,2013-11-02 01:52:00,
2013-11-01 21:53:00,60.4,59.4,29.69,SSW,194,6.0,8.0,96,0.00,,,0.12,meteohub,2013-11-02 01:53:00,
2013-11-01 21:55:00,60.6,59.5,29.68,SW,215,5.0,8.0,96,0.00,,,0.12,meteohub,2013-11-02 01:55:00,
2013-11-01 21:56:00,60.6,59.5,29.68,SW,231,3.0,8.0,96,0.00,,,0.12,meteohub,2013-11-02 01:56:00,
2013-11-01 21:57:00,60.6,59.5,29.68,SW,229,2.0,8.0,96,0.00,,,0.12,meteohub,2013-11-02 01:57:00,
2013-11-01 21:58:00,61.0,59.9,29.68,SSW,213,3.0,8.0,96,0.00,,,0.12,meteohub,2013-11-02 01:58:00,
2013-11-01 21:59:00,61.0,59.9,29.68,SW,234,2.0,8.0,96,0.00,,,0.12,meteohub,2013-11-02 01:59:00,
2013-11-01 22:00:00,61.0,59.9,29.68,SSW,206,3.0,8.0,96,0.00,,,0.12,meteohub,2013-11-02 02:00:00,
2013-11-01 22:01:00,61.2,60.3,29.68,WSW,240,3.0,8.0,97,0.00,,,0.12,meteohub,2013-11-02 02:01:00,
2013-11-01 22:03:00,61.3,60.4,29.69,SW,221,2.0,8.0,97,0.00,,,0.12,meteohub,2013-11-02 02:03:00,
2013-11-01 22:06:00,61.3,60.3,29.69,SSW,196,6.0,8.0,96,0.00,,,0.12,meteohub,2013-11-02 02:06:00,
2013-11-01 22:07:00,61.3,60.3,29.70,SW,219,4.0,8.0,96,0.00,,,0.12,meteohub,2013-11-02 02:07:00,
2013-11-01 22:08:00,61.3,60.3,29.70,SSW,204,5.0,8.0,96,0.00,,,0.12,meteohub,2013-11-02 02:08:00,
2013-11-01 22:11:00,61.3,60.3,29.70,SSW,205,4.0,9.0,96,0.00,,,0.12,meteohub,2013-11-02 02:11:00,
2013-11-01 22:12:00,61.3,60.3,29.70,SSW,196,5.0,9.0,96,0.00,,,0.12,meteohub,2013-11-02 02:12:00,
2013-11-01 22:14:00,61.3,60.3,29.70,SSW,206,6.0,9.0,96,0.00,,,0.12,meteohub,2013-11-02 02:14:00,
2013-11-01 22:16:00,61.2,60.1,29.68,SW,227,5.0,11.0,96,0.00,,,0.12,meteohub,2013-11-02 02:16:00,
2013-11-01 22:17:00,61.3,60.3,29.68,SW,223,5.0,11.0,96,0.00,,,0.12,meteohub,2013-11-02 02:17:00,
2013-11-01 22:19:00,61.2,60.1,29.68,SSW,198,4.0,11.0,96,0.00,,,0.12,meteohub,2013-11-02 02:19:00,
2013-11-01 22:21:00,61.0,59.9,29.68,WSW,242,4.0,12.0,96,0.00,,,0.12,meteohub,2013-11-02 02:21:00,
2013-11-01 22:22:00,61.0,59.9,29.68,SW,236,2.0,12.0,96,0.00,,,0.12,meteohub,2013-11-02 02:22:00,
2013-11-01 22:24:00,60.8,59.7,29.68,SSW,206,1.0,12.0,96,0.00,,,0.12,meteohub,2013-11-02 02:24:00,
2013-11-01 22:26:00,60.8,59.7,29.68,SW,225,2.0,12.0,96,0.00,,,0.12,meteohub,2013-11-02 02:26:00,
2013-11-01 22:27:00,60.8,59.7,29.68,SW,229,4.0,12.0,96,0.00,,,0.12,meteohub,2013-11-02 02:27:00,
2013-11-01 22:28:00,61.0,59.9,29.68,West,269,3.0,12.0,96,0.00,,,0.12,meteohub,2013-11-02 02:28:00,
2013-11-01 22:29:00,61.0,59.9,29.68,SW,222,3.0,12.0,96,0.00,,,0.12,meteohub,2013-11-02 02:29:00,
2013-11-01 22:32:00,61.2,60.1,29.68,SW,217,2.0,12.0,96,0.00,,,0.12,meteohub,2013-11-02 02:32:00,
2013-11-01 22:34:00,61.3,60.4,29.67,SSW,211,2.0,12.0,97,0.00,,,0.12,meteohub,2013-11-02 02:34:00,
2013-11-01 22:36:00,61.2,60.1,29.67,SW,236,1.0,9.0,96,0.00,,,0.12,meteohub,2013-11-02 02:36:00,
2013-11-01 22:37:00,61.3,60.3,29.67,SW,234,0.0,9.0,96,0.00,,,0.12,meteohub,2013-11-02 02:37:00,
2013-11-01 22:38:00,61.3,60.3,29.67,SW,234,0.0,9.0,96,0.00,,,0.12,meteohub,2013-11-02 02:38:00,
2013-11-01 22:39:00,61.3,60.3,29.67,SW,234,0.0,9.0,96,0.00,,,0.12,meteohub,2013-11-02 02:39:00,
2013-11-01 22:41:00,61.3,60.3,29.67,SSW,194,0.0,9.0,96,0.00,,,0.12,meteohub,2013-11-02 02:41:00,
2013-11-01 22:43:00,61.2,60.1,29.67,SSW,193,0.0,9.0,96,0.00,,,0.12,meteohub,2013-11-02 02:43:00,
2013-11-01 22:44:00,61.2,60.1,29.67,SSW,193,1.0,9.0,96,0.00,,,0.12,meteohub,2013-11-02 02:44:00,
2013-11-01 22:45:00,61.2,60.1,29.67,SSW,193,0.0,9.0,96,0.00,,,0.12,meteohub,2013-11-02 02:45:00,
2013-11-01 22:46:00,61.0,59.9,29.67,SSW,202,1.0,3.0,96,0.00,,,0.12,meteohub,2013-11-02 02:46:00,
2013-11-01 22:48:00,61.0,59.9,29.67,SSW,209,1.0,3.0,96,0.00,,,0.12,meteohub,2013-11-02 02:48:00,
2013-11-01 22:49:00,61.0,59.9,29.67,SSW,209,0.0,3.0,96,0.00,,,0.12,meteohub,2013-11-02 02:49:00,
2013-11-01 22:50:00,61.0,59.9,29.67,South,177,1.0,3.0,96,0.00,,,0.12,meteohub,2013-11-02 02:50:00,
2013-11-01 22:51:00,61.0,59.9,29.68,SW,219,5.0,5.0,96,0.00,,,0.12,meteohub,2013-11-02 02:51:00,
2013-11-01 22:52:00,61.0,59.9,29.67,South,175,3.0,3.0,96,0.00,,,0.12,meteohub,2013-11-02 02:52:00,
2013-11-01 22:53:00,61.0,59.9,29.67,SSW,204,2.0,3.0,96,0.00,,,0.12,meteohub,2013-11-02 02:53:00,
2013-11-01 22:55:00,60.8,59.7,29.67,SW,215,3.0,6.0,96,0.00,,,0.12,meteohub,2013-11-02 02:55:00,
2013-11-01 22:56:00,60.8,59.7,29.67,SW,218,0.0,6.0,96,0.00,,,0.12,meteohub,2013-11-02 02:56:00,
2013-11-01 22:57:00,60.8,59.7,29.66,SW,216,1.0,6.0,96,0.00,,,0.12,meteohub,2013-11-02 02:57:00,
2013-11-01 22:58:00,60.8,59.7,29.66,SW,229,2.0,6.0,96,0.00,,,0.12,meteohub,2013-11-02 02:58:00,
2013-11-01 23:00:00,61.2,60.3,29.66,West,266,0.0,6.0,97,0.00,,,0.12,meteohub,2013-11-02 03:00:00,
2013-11-01 23:02:00,61.3,60.4,29.66,West,281,0.0,6.0,97,0.00,,,0.12,meteohub,2013-11-02 03:02:00,
2013-11-01 23:03:00,61.3,60.4,29.66,West,262,3.0,6.0,97,0.00,,,0.12,meteohub,2013-11-02 03:03:00,
2013-11-01 23:04:00,61.9,61.0,29.66,WSW,244,4.0,6.0,97,0.00,,,0.12,meteohub,2013-11-02 03:04:00,
2013-11-01 23:05:00,62.1,61.2,29.66,WSW,248,2.0,6.0,97,0.00,,,0.12,meteohub,2013-11-02 03:05:00,
2013-11-01 23:08:00,62.2,61.3,29.65,WSW,242,0.0,6.0,97,0.00,,,0.12,meteohub,2013-11-02 03:08:00,
2013-11-01 23:09:00,62.4,61.5,29.65,WSW,242,0.0,6.0,97,0.00,,,0.12,meteohub,2013-11-02 03:09:00,
2013-11-01 23:11:00,62.2,61.2,29.66,SSW,201,3.0,6.0,96,0.00,,,0.12,meteohub,2013-11-02 03:11:00,
2013-11-01 23:13:00,61.7,60.6,29.66,SW,219,0.0,6.0,96,0.00,,,0.12,meteohub,2013-11-02 03:13:00,
2013-11-01 23:14:00,61.7,60.6,29.65,SW,219,0.0,6.0,96,0.00,,,0.12,meteohub,2013-11-02 03:14:00,
2013-11-01 23:15:00,61.5,60.4,29.65,SW,219,0.0,6.0,96,0.00,,,0.12,meteohub,2013-11-02 03:15:00,
2013-11-01 23:17:00,61.3,60.3,29.65,SSW,209,1.0,6.0,96,0.00,,,0.12,meteohub,2013-11-02 03:17:00,
2013-11-01 23:19:00,61.3,60.3,29.65,WSW,243,1.0,6.0,96,0.00,,,0.12,meteohub,2013-11-02 03:19:00,
2013-11-01 23:20:00,61.3,60.3,29.65,WSW,243,0.0,6.0,96,0.00,,,0.12,meteohub,2013-11-02 03:20:00,
2013-11-01 23:22:00,61.3,60.3,29.65,WSW,242,1.0,6.0,96,0.00,,,0.12,meteohub,2013-11-02 03:22:00,
2013-11-01 23:24:00,61.5,60.6,29.65,SW,233,0.0,6.0,97,0.00,,,0.12,meteohub,2013-11-02 03:24:00,
2013-11-01 23:25:00,61.5,60.6,29.65,SW,233,0.0,6.0,97,0.00,,,0.12,meteohub,2013-11-02 03:25:00,
2013-11-01 23:26:00,61.5,60.4,29.65,SSE,161,2.0,6.0,96,0.00,,,0.12,meteohub,2013-11-02 03:26:00,
2013-11-01 23:27:00,61.3,60.3,29.65,SSW,204,3.0,6.0,96,0.00,,,0.12,meteohub,2013-11-02 03:27:00,
2013-11-01 23:28:00,61.3,60.3,29.64,SSW,211,0.0,6.0,96,0.00,,,0.12,meteohub,2013-11-02 03:28:00,
2013-11-01 23:30:00,61.2,60.1,29.63,SSE,161,2.0,3.0,96,0.00,,,0.12,meteohub,2013-11-02 03:30:00,
2013-11-01 23:31:00,61.0,59.9,29.62,SSE,165,2.0,3.0,96,0.00,,,0.12,meteohub,2013-11-02 03:31:00,
2013-11-01 23:32:00,61.0,59.9,29.62,South,178,0.0,3.0,96,0.00,,,0.12,meteohub,2013-11-02 03:32:00,
2013-11-01 23:33:00,60.8,59.7,29.63,South,176,0.0,3.0,96,0.00,,,0.12,meteohub,2013-11-02 03:33:00,
2013-11-01 23:34:00,60.6,59.5,29.63,South,188,0.0,3.0,96,0.00,,,0.12,meteohub,2013-11-02 03:34:00,
2013-11-01 23:35:00,60.6,59.5,29.64,SW,217,2.0,4.0,96,0.00,,,0.12,meteohub,2013-11-02 03:35:00,
2013-11-01 23:36:00,60.6,59.5,29.64,SW,234,2.0,4.0,96,0.00,,,0.12,meteohub,2013-11-02 03:36:00,
2013-11-01 23:37:00,60.6,59.5,29.65,SW,235,1.0,4.0,96,0.00,,,0.12,meteohub,2013-11-02 03:37:00,
2013-11-01 23:38:00,60.6,59.5,29.65,SW,235,1.0,4.0,96,0.00,,,0.12,meteohub,2013-11-02 03:38:00,
2013-11-01 23:40:00,60.6,59.7,29.65,SW,235,0.0,4.0,97,0.00,,,0.12,meteohub,2013-11-02 03:40:00,
2013-11-01 23:41:00,60.6,59.7,29.65,SW,235,1.0,4.0,97,0.00,,,0.12,meteohub,2013-11-02 03:41:00,
2013-11-01 23:42:00,60.8,59.9,29.65,SW,235,1.0,4.0,97,0.00,,,0.12,meteohub,2013-11-02 03:42:00,
2013-11-01 23:43:00,60.8,59.9,29.65,SW,235,1.0,4.0,97,0.00,,,0.12,meteohub,2013-11-02 03:43:00,
2013-11-01 23:46:00,61.0,60.1,29.65,SW,235,0.0,4.0,97,0.00,,,0.12,meteohub,2013-11-02 03:46:00,
2013-11-01 23:47:00,61.2,60.3,29.65,WSW,240,0.0,4.0,97,0.00,,,0.12,meteohub,2013-11-02 03:47:00,
2013-11-01 23:48:00,61.2,60.3,29.64,WSW,240,1.0,4.0,97,0.00,,,0.12,meteohub,2013-11-02 03:48:00,
2013-11-01 23:51:00,61.5,60.6,29.64,WSW,240,2.0,5.0,97,0.00,,,0.12,meteohub,2013-11-02 03:51:00,
2013-11-01 23:52:00,61.5,60.6,29.64,WSW,240,2.0,5.0,97,0.00,,,0.12,meteohub,2013-11-02 03:52:00,
2013-11-01 23:53:00,61.5,60.6,29.64,West,268,6.0,6.0,97,0.00,,,0.12,meteohub,2013-11-02 03:53:00,
2013-11-01 23:56:00,61.7,60.8,29.64,SW,235,4.0,5.0,97,0.00,,,0.12,meteohub,2013-11-02 03:56:00,
2013-11-01 23:58:00,61.7,60.8,29.64,WSW,240,2.0,5.0,97,0.00,,,0.12,meteohub,2013-11-02 03:58:00,
2013-11-01 23:59:00,61.5,60.6,29.65,WSW,240,2.0,5.0,97,0.00,,,0.12,meteohub,2013-11-02 03:59:00,